FW4143 Weather Reports


time (UTC)temp
C
wind
direction
speed
KPH
gust
KPH
rain 1hr
cm
rain 24hr
cm
rain mn
cm
humidity
%
barometer
mb
20260506230604 17 166 6.4 20.9 0.00 0.00 0.00 9 1012.6
20260506230504 17 163 6.4 20.9 0.00 0.00 0.00 9 1012.6
20260506230405 17 161 8.0 20.9 0.00 0.00 0.00 7 1012.5
20260506230304 17 161 8.0 20.9 0.00 0.00 0.00 6 1012.4
20260506230204 17 159 9.7 20.9 0.00 0.00 0.00 7 1012.4
20260506230104 17 158 11.3 20.9 0.00 0.00 0.00 9 1012.4
20260506230004 17 159 11.3 20.9 0.00 0.00 0.00 9 1012.4
20260506225904 17 158 11.3 20.9 0.00 0.00 0.00 9 1012.4
20260506225804 17 158 9.7 20.9 0.00 0.00 0.00 9 1012.5
20260506225704 17 156 9.7 20.9 0.00 0.00 0.00 8 1012.5
20260506225604 17 156 9.7 24.1 0.00 0.00 0.00 8 1012.4
20260506225504 17 155 9.7 24.1 0.00 0.00 0.00 10 1012.5
20260506225404 17 153 9.7 24.1 0.00 0.00 0.00 10 1012.4
20260506225305 17 153 9.7 24.1 0.00 0.00 0.00 11 1012.4
20260506225204 17 155 9.7 24.1 0.00 0.00 0.00 10 1012.4
20260506225104 17 156 9.7 24.1 0.00 0.00 0.00 9 1012.4
20260506225004 17 156 11.3 24.1 0.00 0.00 0.00 8 1012.4
20260506224904 17 155 11.3 24.1 0.00 0.00 0.00 8 1012.5
20260506224804 17 155 11.3 24.1 0.00 0.00 0.00 8 1012.5
20260506224704 17 156 11.3 24.1 0.00 0.00 0.00 9 1012.5
20260506224604 17 157 12.9 24.1 0.00 0.00 0.00 10 1012.5
20260506224504 17 159 12.9 24.1 0.00 0.00 0.00 11 1012.5
20260506224404 17 160 12.9 24.1 0.00 0.00 0.00 10 1012.4
20260506224304 17 160 12.9 24.1 0.00 0.00 0.00 12 1012.4
20260506224204 17 158 12.9 24.1 0.00 0.00 0.00 12 1012.4
20260506224104 17 159 12.9 24.1 0.00 0.00 0.00 12 1012.3
20260506224004 17 158 11.3 24.1 0.00 0.00 0.00 11 1012.3
20260506223904 17 160 11.3 24.1 0.00 0.00 0.00 12 1012.3
20260506223804 17 162 11.3 24.1 0.00 0.00 0.00 12 1012.3
20260506223704 17 162 11.3 24.1 0.00 0.00 0.00 13 1012.2
20260506223625 17 162 11.3 24.1 0.00 0.00 0.00 13 1012.2
20260506223525 17 161 11.3 27.4 0.00 0.00 0.00 14 1012.2
20260506223404 17 160 11.3 27.4 0.00 0.00 0.00 13 1012.2
20260506223304 17 161 11.3 27.4 0.00 0.00 0.00 14 1012.2
20260506223204 17 161 11.3 27.4 0.00 0.00 0.00 13 1012.2
20260506223104 17 163 11.3 27.4 0.00 0.00 0.00 14 1012.3
20260506223004 17 163 11.3 27.4 0.00 0.00 0.00 15 1012.2
20260506222904 17 163 11.3 27.4 0.00 0.00 0.00 13 1012.3
20260506222804 17 161 12.9 27.4 0.00 0.00 0.00 14 1012.3
20260506222704 17 161 11.3 27.4 0.00 0.00 0.00 16 1012.3
20260506222604 17 162 11.3 27.4 0.00 0.00 0.00 16 1012.3
20260506222504 17 163 11.3 24.1 0.00 0.00 0.00 16 1012.4
20260506222404 17 162 12.9 24.1 0.00 0.00 0.00 17 1012.4
20260506222306 17 166 12.9 24.1 0.00 0.00 0.00 17 1012.4
20260506222204 17 169 12.9 24.1 0.00 0.00 0.00 17 1012.4
20260506222104 17 169 12.9 27.4 0.00 0.00 0.00 18 1012.4
20260506222004 17 169 12.9 27.4 0.00 0.00 0.00 17 1012.4
20260506221904 17 169 12.9 27.4 0.00 0.00 0.00 16 1012.4
20260506221804 17 169 14.5 27.4 0.00 0.00 0.00 15 1012.4
20260506221704 17 170 14.5 27.4 0.00 0.00 0.00 16 1012.4
20260506221604 17 171 14.5 27.4 0.00 0.00 0.00 16 1012.4
20260506221504 17 170 14.5 27.4 0.00 0.00 0.00 16 1012.4
20260506221404 17 170 12.9 27.4 0.00 0.00 0.00 20 1012.4
20260506221304 17 168 11.3 27.4 0.00 0.00 0.00 20 1012.4
20260506221204 17 166 11.3 27.4 0.00 0.00 0.00 20 1012.4
20260506221125 17 164 11.3 25.7 0.00 0.00 0.00 19 1012.4
20260506221004 17 166 11.3 24.1 0.00 0.00 0.00 21 1012.3
20260506220904 17 168 11.3 27.4 0.00 0.00 0.00 20 1012.4
20260506220825 17 169 9.7 27.4 0.00 0.00 0.00 20 1012.3
20260506220704 17 169 8.0 27.4 0.00 0.00 0.00 17 1012.3
20260506220604 17 169 9.7 27.4 0.00 0.00 0.00 17 1012.2
20260506220504 17 171 9.7 27.4 0.00 0.00 0.00 19 1012.2
20260506220404 17 170 9.7 27.4 0.00 0.00 0.00 18 1012.2
20260506220304 17 169 11.3 27.4 0.00 0.00 0.00 19 1012.2
20260506220204 17 168 11.3 27.4 0.00 0.00 0.00 19 1012.2
20260506220104 17 167 11.3 27.4 0.00 0.00 0.00 21 1012.2
20260506220004 17 169 11.3 27.4 0.00 0.00 0.00 22 1012.2
20260506215904 17 167 11.3 27.4 0.00 0.00 0.00 22 1012.2
20260506215825 17 167 12.9 27.4 0.00 0.00 0.00 22 1012.2
20260506215704 17 168 12.9 27.4 0.00 0.00 0.00 19 1012.2
20260506215625 17 169 14.5 27.4 0.00 0.00 0.00 19 1012.2
20260506215504 17 168 14.5 27.4 0.00 0.00 0.00 19 1012.3
20260506215404 17 168 14.5 27.4 0.00 0.00 0.00 20 1012.2
20260506215306 17 169 14.5 27.4 0.00 0.00 0.00 21 1012.2
20260506215225 17 170 12.9 27.4 0.00 0.00 0.00 21 1012.2
20260506215104 17 170 12.9 27.4 0.00 0.00 0.00 19 1012.2
20260506215004 17 168 14.5 27.4 0.00 0.00 0.00 21 1012.2
20260506214904 17 167 14.5 29.0 0.00 0.00 0.00 21 1012.2
20260506214804 17 167 14.5 29.0 0.00 0.00 0.00 21 1012.2
20260506214704 17 168 12.9 29.0 0.00 0.00 0.00 21 1012.1
20260506214604 17 169 12.9 29.0 0.00 0.00 0.00 21 1012.2
20260506214503 17 171 12.9 29.0 0.00 0.00 0.00 19 1012.1
20260506214404 17 174 12.9 29.0 0.00 0.00 0.00 20 1012.1
20260506214304 17 173 14.5 29.0 0.00 0.00 0.00 21 1012.1
20260506214204 17 171 14.5 29.0 0.00 0.00 0.00 22 1012.0
20260506214104 17 172 16.1 29.0 0.00 0.00 0.00 21 1012.0
20260506214004 17 172 16.1 29.0 0.00 0.00 0.00 23 1012.0
20260506213904 17 172 14.5 25.7 0.00 0.00 0.00 23 1012.0
20260506213804 17 173 14.5 25.7 0.00 0.00 0.00 22 1012.0
20260506213704 17 171 14.5 24.1 0.00 0.00 0.00 23 1012.1
20260506213604 17 171 14.5 24.1 0.00 0.00 0.00 23 1012.2
20260506213504 17 171 14.5 24.1 0.00 0.00 0.00 24 1012.2
20260506213404 17 168 14.5 24.1 0.00 0.00 0.00 24 1012.2
20260506213304 17 168 14.5 24.1 0.00 0.00 0.00 25 1012.2
20260506213204 17 170 14.5 24.1 0.00 0.00 0.00 25 1012.2
20260506213104 17 171 12.9 24.1 0.00 0.00 0.00 25 1012.3
20260506213004 17 172 11.3 24.1 0.00 0.00 0.00 25 1012.3
20260506212904 17 172 9.7 24.1 0.00 0.00 0.00 24 1012.3
20260506212804 17 171 9.7 24.1 0.00 0.00 0.00 25 1012.4
20260506212704 18 173 8.0 24.1 0.00 0.00 0.00 26 1012.2
20260506212604 18 172 6.4 22.5 0.00 0.00 0.00 26 1012.3
20260506212504 18 172 6.4 22.5 0.00 0.00 0.00 25 1012.2
20260506212404 18 174 4.8 20.9 0.00 0.00 0.00 24 1012.3
20260506212306 18 178 3.2 20.9 0.00 0.00 0.00 24 1012.3
20260506212225 18 181 1.6 20.9 0.00 0.00 0.00 24 1012.3
20260506212104 18 173 1.6 17.7 0.00 0.00 0.00 25 1012.3
20260506212025 18 174 1.6 17.7 0.00 0.00 0.00 25 1012.4
20260506211904 18 165 3.2 17.7 0.00 0.00 0.00 28 1012.4
20260506211804 18 157 3.2 25.7 0.00 0.00 0.00 26 1012.4
20260506211704 18 156 4.8 25.7 0.00 0.00 0.00 27 1012.4
20260506211625 18 155 4.8 25.7 0.00 0.00 0.00 27 1012.3
20260506211504 18 155 6.4 25.7 0.00 0.00 0.00 26 1012.4
20260506211404 18 156 8.0 25.7 0.00 0.00 0.00 26 1012.4
20260506211304 18 156 9.7 25.7 0.00 0.00 0.00 27 1012.3
20260506211204 18 157 9.7 25.7 0.00 0.00 0.00 26 1012.3
20260506211104 18 157 9.7 25.7 0.00 0.00 0.00 27 1012.3
20260506211025 18 157 9.7 25.7 0.00 0.00 0.00 27 1012.5
20260506210904 18 159 8.0 25.7 0.00 0.00 0.00 28 1012.5
20260506210825 18 160 6.4 22.5 0.00 0.00 0.00 27 1012.5
20260506210704 18 163 6.4 22.5 0.00 0.00 0.00 27 1012.5
20260506210604 18 164 4.8 22.5 0.00 0.00 0.00 27 1012.4
20260506210504 18 161 4.8 22.5 0.00 0.00 0.00 25 1012.4
20260506210404 18 159 4.8 24.1 0.00 0.00 0.00 25 1012.3
20260506210304 18 159 3.2 24.1 0.00 0.00 0.00 25 1012.3
20260506210204 18 157 3.2 24.1 0.00 0.00 0.00 25 1012.4
20260506210104 18 157 3.2 24.1 0.00 0.00 0.00 24 1012.4
20260506210004 18 158 3.2 24.1 0.00 0.00 0.00 23 1012.4
20260506205904 18 159 3.2 24.1 0.00 0.00 0.00 25 1012.4
20260506205804 18 156 3.2 24.1 0.00 0.00 0.00 26 1012.5
20260506205704 18 155 3.2 24.1 0.00 0.00 0.00 26 1012.5
20260506205604 18 153 3.2 24.1 0.00 0.00 0.00 26 1012.5
20260506205504 18 156 3.2 24.1 0.00 0.00 0.00 26 1012.6
20260506205404 18 160 1.6 14.5 0.00 0.00 0.00 24 1012.5
20260506205306 18 161 3.2 14.5 0.00 0.00 0.00 24 1012.6
20260506205204 18 161 3.2 14.5 0.00 0.00 0.00 24 1012.6
20260506205125 18 161 3.2 14.5 0.00 0.00 0.00 24 1012.6
20260506205004 18 166 3.2 14.5 0.00 0.00 0.00 25 1012.7
20260506204904 18 166 3.2 24.1 0.00 0.00 0.00 25 1012.7
20260506204804 18 165 3.2 24.1 0.00 0.00 0.00 26 1012.7
20260506204704 18 165 4.8 24.1 0.00 0.00 0.00 26 1012.6
20260506204604 18 165 4.8 24.1 0.00 0.00 0.00 27 1012.6
20260506204504 18 167 6.4 24.1 0.00 0.00 0.00 28 1012.6
20260506204404 18 168 8.0 24.1 0.00 0.00 0.00 27 1012.7
20260506204304 18 168 9.7 24.1 0.00 0.00 0.00 26 1012.6
20260506204204 18 168 9.7 24.1 0.00 0.00 0.00 26 1012.5
20260506204104 18 167 11.3 24.1 0.00 0.00 0.00 27 1012.5
20260506204004 18 165 11.3 24.1 0.00 0.00 0.00 27 1012.5
20260506203904 18 164 11.3 27.4 0.00 0.00 0.00 27 1012.6
20260506203804 19 163 12.9 27.4 0.00 0.00 0.00 27 1012.5
20260506203725 19 163 12.9 27.4 0.00 0.00 0.00 27 1012.5
20260506203604 19 163 12.9 27.4 0.00 0.00 0.00 28 1012.5
20260506203504 19 163 11.3 27.4 0.00 0.00 0.00 28 1012.5
20260506203404 19 161 11.3 27.4 0.00 0.00 0.00 27 1012.5
20260506203304 19 159 9.7 27.4 0.00 0.00 0.00 25 1012.5
20260506203204 20 160 9.7 27.4 0.00 0.00 0.00 25 1012.5
20260506203104 20 159 9.7 27.4 0.00 0.00 0.00 23 1012.5
20260506203004 20 159 11.3 27.4 0.00 0.00 0.00 23 1012.4
20260506202904 20 159 11.3 24.1 0.00 0.00 0.00 23 1012.4
20260506202804 20 160 12.9 24.1 0.00 0.00 0.00 22 1012.4
20260506202704 20 162 12.9 24.1 0.00 0.00 0.00 23 1012.4
20260506202604 20 161 11.3 24.1 0.00 0.00 0.00 23 1012.4
20260506202504 20 160 12.9 24.1 0.00 0.00 0.00 21 1012.3
20260506202404 20 162 12.9 24.1 0.00 0.00 0.00 22 1012.4
20260506202306 20 162 12.9 24.1 0.00 0.00 0.00 23 1012.4
20260506202204 20 161 12.9 24.1 0.00 0.00 0.00 21 1012.4
20260506202104 20 162 12.9 22.5 0.00 0.00 0.00 22 1012.3
20260506202025 20 163 14.5 22.5 0.00 0.00 0.00 22 1012.3
20260506201904 20 165 12.9 25.7 0.00 0.00 0.00 23 1012.3
20260506201804 20 166 12.9 25.7 0.00 0.00 0.00 23 1012.3
20260506201704 20 165 11.3 25.7 0.00 0.00 0.00 21 1012.2
20260506201604 20 165 11.3 25.7 0.00 0.00 0.00 22 1012.2
20260506201503 20 167 9.7 25.7 0.00 0.00 0.00 21 1012.2
20260506201404 20 165 9.7 25.7 0.00 0.00 0.00 22 1012.1
20260506201304 20 168 9.7 25.7 0.00 0.00 0.00 22 1012.1
20260506201225 20 169 8.0 25.7 0.00 0.00 0.00 22 1012.2
20260506201125 20 167 8.0 25.7 0.00 0.00 0.00 22 1012.1
20260506201006 20 164 8.0 24.1 0.00 0.00 0.00 20 1012.2
20260506200905 20 164 8.0 22.5 0.00 0.00 0.00 19 1012.2
20260506200804 20 163 9.7 24.1 0.00 0.00 0.00 20 1012.2
20260506200704 20 164 9.7 27.4 0.00 0.00 0.00 20 1012.2
20260506200604 20 165 11.3 27.4 0.00 0.00 0.00 17 1012.2
20260506200504 20 165 11.3 27.4 0.00 0.00 0.00 17 1012.1
20260506200404 20 166 9.7 27.4 0.00 0.00 0.00 17 1012.1
20260506200304 20 163 9.7 27.4 0.00 0.00 0.00 17 1012.1
20260506200204 20 164 9.7 27.4 0.00 0.00 0.00 19 1012.1
20260506200104 20 166 8.0 27.4 0.00 0.00 0.00 20 1012.0
20260506200004 20 167 6.4 27.4 0.00 0.00 0.00 22 1012.0
20260506195904 20 166 4.8 27.4 0.00 0.00 0.00 22 1012.0
20260506195804 20 169 3.2 27.4 0.00 0.00 0.00 23 1012.0
20260506195704 20 170 3.2 24.1 0.00 0.00 0.00 23 1012.0
20260506195604 20 167 1.6 24.1 0.00 0.00 0.00 23 1012.0
20260506195504 20 168 1.6 24.1 0.00 0.00 0.00 23 1012.0
20260506195404 20 175 3.2 24.1 0.00 0.00 0.00 24 1012.0
20260506195306 20 175 3.2 24.1 0.00 0.00 0.00 23 1012.0
20260506195204 20 172 4.8 25.7 0.00 0.00 0.00 24 1012.0
20260506195104 20 169 4.8 27.4 0.00 0.00 0.00 24 1012.0
20260506195003 21 168 4.8 27.4 0.00 0.00 0.00 24 1012.0
20260506194904 21 170 4.8 27.4 0.00 0.00 0.00 24 1012.0
20260506194804 21 169 6.4 27.4 0.00 0.00 0.00 24 1012.1
20260506194704 21 172 6.4 27.4 0.00 0.00 0.00 25 1012.0
20260506194604 21 176 8.0 27.4 0.00 0.00 0.00 25 1012.0
20260506194504 21 175 8.0 29.0 0.00 0.00 0.00 25 1012.0
20260506194404 21 173 8.0 29.0 0.00 0.00 0.00 26 1011.9
20260506194325 21 175 9.7 29.0 0.00 0.00 0.00 26 1012.0
20260506194204 21 177 8.0 29.0 0.00 0.00 0.00 28 1011.9
20260506194104 21 177 9.7 29.0 0.00 0.00 0.00 28 1011.9
20260506194025 21 176 9.7 29.0 0.00 0.00 0.00 28 1012.0
20260506193904 21 174 11.3 29.0 0.00 0.00 0.00 28 1012.0
20260506193825 21 175 11.3 29.0 0.00 0.00 0.00 27 1011.9
20260506193725 21 175 11.3 29.0 0.00 0.00 0.00 28 1011.9
20260506193625 21 176 11.3 29.0 0.00 0.00 0.00 27 1011.9
20260506193504 21 175 11.3 25.7 0.00 0.00 0.00 26 1011.8
20260506193425 21 175 11.3 25.7 0.00 0.00 0.00 27 1011.8
20260506193304 21 172 11.3 25.7 0.00 0.00 0.00 26 1011.8
20260506193204 21 169 11.3 25.7 0.00 0.00 0.00 28 1011.9
20260506193104 21 169 12.9 25.7 0.00 0.00 0.00 28 1011.9
20260506193025 21 168 12.9 25.7 0.00 0.00 0.00 27 1011.9
20260506192904 21 167 14.5 25.7 0.00 0.00 0.00 27 1011.8
20260506192825 22 166 14.5 25.7 0.00 0.00 0.00 27 1011.8
20260506192704 21 164 12.9 25.7 0.00 0.00 0.00 27 1011.9
20260506192604 21 162 12.9 25.7 0.00 0.00 0.00 26 1011.9
20260506192504 21 160 12.9 25.7 0.00 0.00 0.00 28 1011.9
20260506192404 21 158 11.3 25.7 0.00 0.00 0.00 28 1011.9
20260506192305 21 158 9.7 25.7 0.00 0.00 0.00 27 1011.9
20260506192204 22 159 9.7 25.7 0.00 0.00 0.00 28 1011.9
20260506192125 22 158 6.4 25.7 0.00 0.00 0.00 29 1011.9
20260506192004 22 159 6.4 25.7 0.00 0.00 0.00 29 1011.9
20260506191925 22 161 4.8 24.1 0.00 0.00 0.00 28 1011.8
20260506191804 22 159 3.2 22.5 0.00 0.00 0.00 26 1011.9
20260506191725 22 159 4.8 17.7 0.00 0.00 0.00 26 1011.9
20260506191604 22 158 4.8 17.7 0.00 0.00 0.00 27 1011.9
20260506191504 22 159 3.2 17.7 0.00 0.00 0.00 27 1012.0
20260506191404 22 164 3.2 17.7 0.00 0.00 0.00 27 1012.1
20260506191304 22 163 3.2 17.7 0.00 0.00 0.00 26 1012.1
20260506191204 22 161 3.2 17.7 0.00 0.00 0.00 27 1012.1
20260506191104 22 161 3.2 17.7 0.00 0.00 0.00 28 1012.1
20260506191025 22 161 1.6 17.7 0.00 0.00 0.00 27 1012.1
20260506190925 22 161 1.6 17.7 0.00 0.00 0.00 28 1012.1
20260506190804 23 157 1.6 16.1 0.00 0.00 0.00 28 1012.0
20260506190704 23 155 1.6 16.1 0.00 0.00 0.00 27 1012.0
20260506190604 23 158 1.6 12.9 0.00 0.00 0.00 25 1012.0
20260506190525 23 158 1.6 12.9 0.00 0.00 0.00 25 1012.0
20260506190404 23 158 1.6 12.9 0.00 0.00 0.00 25 1011.9
20260506190304 23 158 0.0 12.9 0.00 0.00 0.00 24 1011.9
20260506190225 23 166 0.0 11.3 0.00 0.00 0.00 24 1011.9
20260506190104 23 163 0.0 11.3 0.00 0.00 0.00 23 1011.9
20260506190004 23 164 1.6 11.3 0.00 0.00 0.00 24 1011.9
20260506185904 23 167 1.6 11.3 0.00 0.00 0.00 24 1011.9
20260506185804 23 171 1.6 11.3 0.00 0.00 0.00 24 1011.9
20260506185704 23 171 1.6 11.3 0.00 0.00 0.00 23 1011.9
20260506185604 23 173 0.0 8.0 0.00 0.00 0.00 25 1011.9
20260506185504 23 174 0.0 8.0 0.00 0.00 0.00 22 1011.9
20260506185403 23 176 0.0 8.0 0.00 0.00 0.00 23 1011.9
20260506185306 23 175 0.0 8.0 0.00 0.00 0.00 24 1011.9
20260506185204 23 175 0.0 8.0 0.00 0.00 0.00 23 1011.8
20260506185104 23 181 0.0 6.4 0.00 0.00 0.00 24 1011.8
20260506185003 23 179 0.0 6.4 0.00 0.00 0.00 25 1011.8
20260506184904 23 179 0.0 6.4 0.00 0.00 0.00 25 1011.7
20260506184804 23 173 0.0 6.4 0.00 0.00 0.00 24 1011.7
20260506184704 23 180 0.0 6.4 0.00 0.00 0.00 22 1011.7
20260506184625 23 177 0.0 4.8 0.00 0.00 0.00 21 1011.7
20260506184504 23 177 0.0 4.8 0.00 0.00 0.00 21 1011.6
20260506184404 23 177 0.0 4.8 0.00 0.00 0.00 20 1011.7
20260506184304 23 172 0.0 4.8 0.00 0.00 0.00 20 1011.7
20260506184204 23 164 0.0 9.7 0.00 0.00 0.00 18 1011.7
20260506184103 23 164 0.0 9.7 0.00 0.00 0.00 19 1011.7
20260506184004 23 164 0.0 9.7 0.00 0.00 0.00 18 1011.7
20260506183925 23 164 0.0 9.7 0.00 0.00 0.00 17 1011.7
20260506183804 23 160 0.0 9.7 0.00 0.00 0.00 18 1011.7
20260506183704 23 155 0.0 9.7 0.00 0.00 0.00 16 1011.7
20260506183604 22 154 0.0 9.7 0.00 0.00 0.00 16 1011.7
20260506183504 22 154 0.0 9.7 0.00 0.00 0.00 15 1011.7
20260506183404 22 154 0.0 9.7 0.00 0.00 0.00 17 1011.7
20260506183304 22 155 0.0 9.7 0.00 0.00 0.00 16 1011.8
20260506183204 22 143 0.0 1.6 0.00 0.00 0.00 12 1011.8
20260506183104 22 143 0.0 1.6 0.00 0.00 0.00 13 1011.9
20260506183004 22 143 0.0 1.6 0.00 0.00 0.00 9 1011.8
20260506182925 22 143 0.0 1.6 0.00 0.00 0.00 12 1011.8
20260506182804 22 143 0.0 1.6 0.00 0.00 0.00 15 1011.9
20260506182704 22 143 0.0 1.6 0.00 0.00 0.00 15 1011.9
20260506182604 22 143 0.0 1.6 0.00 0.00 0.00 12 1011.9
20260506182504 22 143 0.0 1.6 0.00 0.00 0.00 13 1011.9
20260506182404 22 145 0.0 1.6 0.00 0.00 0.00 13 1011.8
20260506182306 22 145 0.0 1.6 0.00 0.00 0.00 14 1011.8
20260506182204 22 146 0.0 1.6 0.00 0.00 0.00 14 1011.9
20260506182104 22 146 0.0 1.6 0.00 0.00 0.00 12 1011.9
20260506182004 22 169 0.0 1.6 0.00 0.00 0.00 15 1011.8
20260506181904 22 169 0.0 1.6 0.00 0.00 0.00 14 1011.8
20260506181804 22 169 0.0 1.6 0.00 0.00 0.00 12 1011.8
20260506181704 22 169 0.0 1.6 0.00 0.00 0.00 15 1011.8
20260506181604 21 169 0.0 1.6 0.00 0.00 0.00 14 1011.8
20260506181525 21 169 0.0 1.6 0.00 0.00 0.00 15 1011.8
20260506181404 21 198 0.0 4.8 0.00 0.00 0.00 16 1011.8
20260506181304 21 198 0.0 4.8 0.00 0.00 0.00 16 1011.7
20260506181204 21 198 0.0 4.8 0.00 0.00 0.00 16 1011.7
20260506181104 21 198 0.0 4.8 0.00 0.00 0.00 18 1011.7
20260506181004 22 203 0.0 4.8 0.00 0.00 0.00 16 1011.7
20260506180925 22 203 0.0 4.8 0.00 0.00 0.00 12 1011.7
20260506180804 21 203 0.0 4.8 0.00 0.00 0.00 13 1011.7
20260506180704 21 203 0.0 4.8 0.00 0.00 0.00 13 1011.6
20260506180604 21 220 0.0 12.9 0.00 0.00 0.00 12 1011.6
20260506180504 21 222 1.6 12.9 0.00 0.00 0.00 9 1011.6
20260506180404 21 215 3.2 12.9 0.00 0.00 0.00 9 1011.6
20260506180304 21 211 3.2 14.5 0.00 0.00 0.00 7 1011.6
20260506180204 21 207 3.2 14.5 0.00 0.00 0.00 11 1011.6
20260506180104 21 209 4.8 14.5 0.00 0.00 0.00 13 1011.6
20260506180005 21 206 4.8 14.5 0.00 0.00 0.00 12 1011.7
20260506175904 21 206 6.4 14.5 0.00 0.00 0.00 11 1011.6
20260506175804 21 208 6.4 14.5 0.00 0.00 0.00 8 1011.6
20260506175725 21 209 6.4 14.5 0.00 0.00 0.00 12 1011.5
20260506175625 21 209 6.4 14.5 0.00 0.00 0.00 12 1011.5
20260506175504 21 210 6.4 14.5 0.00 0.00 0.00 11 1011.5
20260506175425 21 214 6.4 14.5 0.00 0.00 0.00 11 1011.5
20260506175306 21 218 6.4 12.9 0.00 0.00 0.00 10 1011.4
20260506175204 21 220 4.8 12.9 0.00 0.00 0.00 11 1011.5
20260506175104 21 220 4.8 12.9 0.00 0.00 0.00 6 1011.4
20260506175024 21 217 4.8 17.7 0.00 0.00 0.00 6 1011.5
20260506174904 21 219 4.8 17.7 0.00 0.00 0.00 7 1011.4
20260506174804 21 218 3.2 17.7 0.00 0.00 0.00 7 1011.5
20260506174704 21 217 3.2 17.7 0.00 0.00 0.00 7 1011.6
20260506174625 21 220 3.2 17.7 0.00 0.00 0.00 7 1011.6
20260506174525 21 217 1.6 17.7 0.00 0.00 0.00 6 1011.6
20260506174404 21 190 1.6 17.7 0.00 0.00 0.00 5 1011.6
20260506174304 20 188 1.6 17.7 0.00 0.00 0.00 7 1011.6
20260506174204 20 188 1.6 17.7 0.00 0.00 0.00 3 1011.6
20260506174104 20 186 0.0 17.7 0.00 0.00 0.00 5 1011.6
20260506174004 20 194 0.0 3.2 0.00 0.00 0.00 4 1011.6
20260506173904 20 189 0.0 3.2 0.00 0.00 0.00 1 1011.6
20260506173804 20 178 0.0 1.6 0.00 0.00 0.00 1 1011.7
20260506173704 20 204 0.0 3.2 0.00 0.00 0.00 1 1011.7
20260506173604 20 206 0.0 3.2 0.00 0.00 0.00 1 1011.8
20260506173525 20 207 0.0 3.2 0.00 0.00 0.00 1 1011.7
20260506173404 20 207 0.0 3.2 0.00 0.00 0.00 1 1011.7
20260506173304 20 205 0.0 3.2 0.00 0.00 0.00 1 1011.7
20260506173204 20 212 0.0 17.7 0.00 0.00 0.00 1 1011.7
20260506173104 20 175 1.6 17.7 0.00 0.00 0.00 1 1011.7
20260506173004 20 167 1.6 17.7 0.00 0.00 0.00 1 1011.7
20260506172904 20 169 1.6 17.7 0.00 0.00 0.00 1 1011.8
20260506172803 20 169 1.6 17.7 0.00 0.00 0.00 1 1011.8
20260506172704 20 167 1.6 17.7 0.00 0.00 0.00 1 1011.8
20260506172604 20 171 3.2 17.7 0.00 0.00 0.00 1 1011.8
20260506172504 20 186 3.2 17.7 0.00 0.00 0.00 1 1011.8
20260506172425 20 191 4.8 17.7 0.00 0.00 0.00 1 1011.9
20260506172306 20 199 6.4 17.7 0.00 0.00 0.00 1 1011.8
20260506172204 20 202 6.4 17.7 0.00 0.00 0.00 1 1011.8
20260506172104 20 208 6.4 17.7 0.00 0.00 0.00 1 1011.8
20260506172004 20 215 4.8 17.7 0.00 0.00 0.00 1 1011.7
20260506171904 19 215 6.4 17.7 0.00 0.00 0.00 1 1011.8
20260506171804 19 209 8.0 17.7 0.00 0.00 0.00 1 1011.8
20260506171725 19 206 8.0 17.7 0.00 0.00 0.00 1 1011.8
20260506171604 19 209 9.7 17.7 0.00 0.00 0.00 1 1011.9
20260506171504 19 214 9.7 17.7 0.00 0.00 0.00 1 1011.9
20260506171404 18 218 8.0 17.7 0.00 0.00 0.00 1 1011.9
20260506171325 18 219 8.0 17.7 0.00 0.00 0.00 1 1011.8
20260506171204 18 219 8.0 20.9 0.00 0.00 0.00 1 1011.8
20260506171104 18 217 9.7 20.9 0.00 0.00 0.00 1 1011.7
20260506171004 18 220 9.7 20.9 0.00 0.00 0.00 1 1011.8
20260506170904 18 223 9.7 20.9 0.00 0.00 0.00 1 1011.8
20260506170803 18 226 9.7 20.9 0.00 0.00 0.00 1 1011.8
20260506170704 18 224 9.7 20.9 0.00 0.00 0.00 1 1011.8
20260506170625 18 221 11.3 20.9 0.00 0.00 0.00 1 1011.9
20260506170525 18 215 11.3 20.9 0.00 0.00 0.00 1 1011.9
20260506170425 18 205 11.3 20.9 0.00 0.00 0.00 1 1011.9
20260506170303 18 200 11.3 20.9 0.00 0.00 0.00 1 1011.9
20260506170204 18 199 11.3 24.1 0.00 0.00 0.00 1 1012.0
20260506170104 18 197 11.3 24.1 0.00 0.00 0.00 1 1012.1
20260506170004 18 195 12.9 24.1 0.00 0.00 0.00 1 1012.2
20260506165904 18 195 12.9 24.1 0.00 0.00 0.00 1 1012.3
20260506165804 18 196 12.9 24.1 0.00 0.00 0.00 1 1012.3
20260506165704 18 199 12.9 24.1 0.00 0.00 0.00 1 1012.2
20260506165604 18 202 12.9 24.1 0.00 0.00 0.00 1 1012.2
20260506165504 18 203 11.3 24.1 0.00 0.00 0.00 1 1012.2
20260506165404 18 205 11.3 24.1 0.00 0.00 0.00 1 1012.2
20260506165305 18 209 11.3 24.1 0.00 0.00 0.00 1 1012.2
20260506165204 18 210 11.3 22.5 0.00 0.00 0.00 1 1012.2
20260506165125 18 210 11.3 22.5 0.00 0.00 0.00 1 1012.4
20260506165003 18 211 9.7 20.9 0.00 0.00 0.00 1 1012.5
20260506164903 17 209 9.7 20.9 0.00 0.00 0.00 1 1012.5
20260506164825 17 211 9.7 20.9 0.00 0.00 0.00 1 1012.5
20260506164704 17 212 9.7 20.9 0.00 0.00 0.00 1 1012.5
20260506164625 17 212 8.0 20.9 0.00 0.00 0.00 1 1012.5
20260506164504 17 214 8.0 20.9 0.00 0.00 0.00 1 1012.5
20260506164404 17 216 6.4 20.9 0.00 0.00 0.00 1 1012.5
20260506164304 17 211 6.4 20.9 0.00 0.00 0.00 1 1012.5
20260506164204 17 208 8.0 20.9 0.00 0.00 0.00 1 1012.6
20260506164104 17 207 8.0 20.9 0.00 0.00 0.00 1 1012.7
20260506164004 17 202 8.0 20.9 0.00 0.00 0.00 1 1012.8
20260506163903 17 199 8.0 20.9 0.00 0.00 0.00 1 1012.8
20260506163804 17 192 6.4 20.9 0.00 0.00 0.00 1 1013.0
20260506163703 17 185 8.0 19.3 0.00 0.00 0.00 1 1013.0
20260506163604 17 183 8.0 19.3 0.00 0.00 0.00 1 1013.0
20260506163504 17 184 9.7 19.3 0.00 0.00 0.00 1 1013.0
20260506163404 16 187 9.7 22.5 0.00 0.00 0.00 1 1013.1
20260506163304 16 187 11.3 22.5 0.00 0.00 0.00 1 1013.1
20260506163204 16 187 9.7 22.5 0.00 0.00 0.00 1 1013.1
20260506163104 16 187 9.7 22.5 0.00 0.00 0.00 1 1013.1
20260506163004 16 185 9.7 22.5 0.00 0.00 0.00 1 1013.1
20260506162904 16 186 11.3 22.5 0.00 0.00 0.00 1 1013.2
20260506162804 16 187 11.3 22.5 0.00 0.00 0.00 1 1013.2
20260506162703 16 185 11.3 22.5 0.00 0.00 0.00 1 1013.2
20260506162604 16 187 11.3 30.6 0.00 0.00 0.00 1 1013.2
20260506162504 17 186 11.3 30.6 0.00 0.00 0.00 1 1013.3
20260506162425 17 186 12.9 30.6 0.00 0.00 0.00 1 1013.2
20260506162306 17 184 12.9 30.6 0.00 0.00 0.00 1 1013.2
20260506162225 17 184 12.9 30.6 0.00 0.00 0.00 1 1013.2
20260506162125 17 183 14.5 30.6 0.00 0.00 0.00 1 1013.1
20260506162025 17 181 14.5 30.6 0.00 0.00 0.00 1 1013.2
20260506161904 17 182 16.1 30.6 0.00 0.00 0.00 1 1013.2
20260506161803 17 182 16.1 30.6 0.00 0.00 0.00 1 1013.4
20260506161704 17 185 16.1 30.6 0.00 0.00 0.00 1 1013.6
20260506161603 17 187 16.1 35.4 0.00 0.00 0.00 1 1013.6
20260506161504 17 186 16.1 35.4 0.00 0.00 0.00 1 1013.7
20260506161404 17 183 17.7 35.4 0.00 0.00 0.00 1 1013.8
20260506161325 17 182 17.7 35.4 0.00 0.00 0.00 1 1013.8
20260506161204 17 180 16.1 35.4 0.00 0.00 0.00 1 1013.8
20260506161104 17 180 16.1 35.4 0.00 0.00 0.00 1 1013.8
20260506161025 17 180 17.7 35.4 0.00 0.00 0.00 1 1013.6
20260506160903 17 177 17.7 35.4 0.00 0.00 0.00 1 1013.6
20260506160825 17 176 17.7 35.4 0.00 0.00 0.00 1 1013.5
20260506160704 17 173 17.7 35.4 0.00 0.00 0.00 1 1013.5
20260506160604 17 169 16.1 32.2 0.00 0.00 0.00 1 1013.5
20260506160504 17 169 16.1 32.2 0.00 0.00 0.00 1 1013.5
20260506160404 17 170 16.1 32.2 0.00 0.00 0.00 1 1013.4
20260506160304 17 172 16.1 38.6 0.00 0.00 0.00 1 1013.4
20260506160225 17 172 17.7 38.6 0.00 0.00 0.00 1 1013.4
20260506160104 17 171 17.7 38.6 0.00 0.00 0.00 1 1013.3
20260506160004 17 172 16.1 38.6 0.00 0.00 0.00 1 1013.5
20260506155903 18 174 16.1 38.6 0.00 0.00 0.00 1 1013.5
20260506155804 18 174 16.1 38.6 0.00 0.00 0.00 1 1013.6
20260506155703 18 175 16.1 38.6 0.00 0.00 0.00 1 1013.5
20260506155604 18 175 16.1 38.6 0.00 0.00 0.00 1 1013.6
20260506155504 18 174 16.1 38.6 0.00 0.00 0.00 1 1013.5
20260506155425 18 175 16.1 38.6 0.00 0.00 0.00 1 1013.5
20260506155306 18 172 14.5 35.4 0.00 0.00 0.00 1 1013.4
20260506155203 18 173 16.1 35.4 0.00 0.00 0.00 1 1013.3
20260506155104 18 174 16.1 35.4 0.00 0.00 0.00 1 1013.2
20260506155025 18 173 16.1 35.4 0.00 0.00 0.00 1 1013.1
20260506154904 18 172 17.7 37.0 0.00 0.00 0.00 1 1013.1
20260506154804 18 171 17.7 37.0 0.00 0.00 0.00 1 1013.1
20260506154704 18 172 19.3 37.0 0.00 0.00 0.00 1 1013.0
20260506154604 18 171 19.3 37.0 0.00 0.00 0.00 1 1013.0
20260506154504 18 172 19.3 37.0 0.00 0.00 0.00 1 1013.1
20260506154404 18 171 19.3 37.0 0.00 0.00 0.00 1 1013.1
20260506154304 18 171 20.9 37.0 0.00 0.00 0.00 1 1013.0
20260506154203 18 172 19.3 37.0 0.00 0.00 0.00 1 1013.0
20260506154104 18 171 19.3 37.0 0.00 0.00 0.00 1 1013.1
20260506154004 18 171 17.7 37.0 0.00 0.00 0.00 1 1013.1
20260506153904 19 172 17.7 35.4 0.00 0.00 0.00 1 1013.1
20260506153804 19 172 16.1 33.8 0.00 0.00 0.00 1 1013.1
20260506153704 19 174 16.1 30.6 0.00 0.00 0.00 1 1013.0
20260506153604 19 177 14.5 30.6 0.00 0.00 0.00 1 1012.9
20260506153504 19 177 14.5 30.6 0.00 0.00 0.00 1 1012.8
20260506153404 19 180 14.5 30.6 0.00 0.00 0.00 1 1012.6
20260506153325 19 182 12.9 30.6 0.00 0.00 0.00 1 1012.6
20260506153204 20 180 12.9 25.7 0.00 0.00 0.00 1 1012.5
20260506153104 20 182 12.9 25.7 0.00 0.00 0.00 1 1012.5
20260506153004 20 184 14.5 25.7 0.00 0.00 0.00 1 1012.4
20260506152904 20 184 12.9 25.7 0.00 0.00 0.00 1 1012.4
20260506152804 20 184 12.9 25.7 0.00 0.00 0.00 1 1012.3
20260506152704 20 182 12.9 30.6 0.00 0.00 0.00 1 1012.3
20260506152603 20 182 12.9 30.6 0.00 0.00 0.00 1 1012.3
20260506152503 20 181 12.9 30.6 0.00 0.00 0.00 1 1012.2
20260506152404 20 179 14.5 30.6 0.00 0.00 0.00 1 1012.2
20260506152325 20 178 14.5 30.6 0.00 0.00 0.00 1 1012.1
20260506152203 20 179 14.5 30.6 0.00 0.00 0.00 1 1012.1
20260506152103 21 178 14.5 30.6 0.00 0.00 0.00 1 1012.0
20260506152003 21 176 14.5 30.6 0.00 0.00 0.00 1 1012.1
20260506151925 21 176 12.9 30.6 0.00 0.00 0.00 1 1012.0
20260506151803 21 175 11.3 30.6 0.00 0.00 0.00 1 1012.0
20260506151703 21 174 11.3 29.0 0.00 0.00 0.00 1 1012.0
20260506151604 22 170 9.7 22.5 0.00 0.00 0.00 3 1012.0
20260506151503 22 168 8.0 22.5 0.00 0.00 0.00 7 1011.9
20260506151404 23 165 6.4 22.5 0.00 0.00 0.00 11 1011.9
20260506151304 23 164 4.8 22.5 0.00 0.00 0.00 1 1011.9
20260506151204 24 159 4.8 22.5 0.00 0.00 0.00 1 1011.9
20260506151104 25 149 3.2 20.9 0.00 0.00 0.00 1 1011.8
20260506151003 26 116 1.6 9.7 0.00 0.00 0.00 1 1011.7
20260506150904 26 115 1.6 9.7 0.00 0.00 0.00 1 1011.6
20260506150825 26 108 1.6 8.0 0.00 0.00 0.00 1 1011.4
20260506150704 26 105 1.6 6.4 0.00 0.00 0.00 1 1011.3
20260506150604 26 104 1.6 6.4 0.00 0.00 0.00 1 1011.3
20260506150504 26 101 0.0 4.8 0.00 0.00 0.00 1 1011.3
20260506150404 26 101 0.0 4.8 0.00 0.00 0.00 1 1011.3
20260506150305 26 101 0.0 4.8 0.00 0.00 0.00 1 1011.3
20260506150204 26 100 0.0 4.8 0.00 0.00 0.00 1 1011.2
20260506150104 26 100 0.0 4.8 0.00 0.00 0.00 1 1011.1
20260506150004 26 98 0.0 1.6 0.00 0.00 0.00 1 1011.1
20260506145904 26 0 0.0 0.0 0.00 0.00 0.00 1 1011.0
20260506145804 26 0 0.0 0.0 0.00 0.00 0.00 1 1011.1
20260506145704 26 295 0.0 3.2 0.00 0.00 0.00 1 1011.0
20260506145604 26 292 0.0 9.7 0.00 0.00 0.00 1 1011.0
20260506145504 26 286 1.6 9.7 0.00 0.00 0.00 1 1011.0
20260506145404 26 286 1.6 9.7 0.00 0.00 0.00 1 1011.0
20260506145305 26 286 1.6 9.7 0.00 0.00 0.00 1 1010.9
20260506145204 26 286 1.6 9.7 0.00 0.00 0.00 1 1010.9
20260506145104 26 286 1.6 9.7 0.00 0.00 0.00 1 1010.7
20260506145003 26 286 1.6 9.7 0.00 0.00 0.00 1 1010.8
20260506144904 26 286 1.6 9.7 0.00 0.00 0.00 1 1010.7
20260506144825 26 286 1.6 9.7 0.00 0.00 0.00 1 1010.7
20260506144725 26 286 1.6 9.7 0.00 0.00 0.00 1 1010.8
20260506144604 26 277 1.6 8.0 0.00 0.00 0.00 1 1010.8
20260506144504 26 271 1.6 6.4 0.00 0.00 0.00 1 1010.7
20260506144404 26 269 1.6 6.4 0.00 0.00 0.00 1 1010.7
20260506144325 26 269 1.6 6.4 0.00 0.00 0.00 1 1010.6
20260506144224 26 268 1.6 6.4 0.00 0.00 0.00 1 1010.6
20260506144104 26 267 1.6 6.4 0.00 0.00 0.00 1 1010.6
20260506144004 26 267 3.2 6.4 0.00 0.00 0.00 1 1010.6
20260506143925 26 266 3.2 8.0 0.00 0.00 0.00 1 1010.6
20260506143804 26 265 3.2 9.7 0.00 0.00 0.00 1 1010.5
20260506143704 26 264 4.8 11.3 0.00 0.00 0.00 1 1010.5
20260506143603 26 264 4.8 11.3 0.00 0.00 0.00 1 1010.5
20260506143504 26 263 4.8 11.3 0.00 0.00 0.00 1 1010.4
20260506143404 26 263 4.8 11.3 0.00 0.00 0.00 1 1010.4
20260506143304 26 261 4.8 11.3 0.00 0.00 0.00 1 1010.4
20260506143204 26 260 4.8 11.3 0.00 0.00 0.00 1 1010.4
20260506143104 26 259 4.8 11.3 0.00 0.00 0.00 1 1010.4
20260506143004 26 258 4.8 11.3 0.00 0.00 0.00 1 1010.4
20260506142903 26 257 4.8 11.3 0.00 0.00 0.00 1 1010.4
20260506142804 26 257 4.8 11.3 0.00 0.00 0.00 1 1010.4
20260506142704 26 257 4.8 9.7 0.00 0.00 0.00 1 1010.4
20260506142603 26 255 4.8 9.7 0.00 0.00 0.00 1 1010.3
20260506142524 26 251 4.8 9.7 0.00 0.00 0.00 1 1010.3
20260506142404 26 247 4.8 9.7 0.00 0.00 0.00 1 1010.2
20260506142325 25 238 4.8 9.7 0.00 0.00 0.00 1 1010.2
20260506142224 25 88 4.8 9.7 0.00 0.00 0.00 1 1010.1
20260506142104 25 72 4.8 9.7 0.00 0.00 0.00 1 1010.1
20260506142004 25 70 3.2 9.7 0.00 0.00 0.00 1 1010.1
20260506141903 25 71 3.2 9.7 0.00 0.00 0.00 1 1010.0
20260506141803 25 73 3.2 8.0 0.00 0.00 0.00 1 1010.0
20260506141704 25 74 3.2 8.0 0.00 0.00 0.00 1 1010.1
20260506141603 25 72 1.6 8.0 0.00 0.00 0.00 1 1010.1
20260506141504 25 68 1.6 8.0 0.00 0.00 0.00 1 1010.1
20260506141425 25 68 1.6 8.0 0.00 0.00 0.00 1 1010.1
20260506141303 25 62 0.0 6.4 0.00 0.00 0.00 1 1010.1
20260506141204 25 55 0.0 6.4 0.00 0.00 0.00 1 1010.1
20260506141104 25 0 0.0 0.0 0.00 0.00 0.00 1 1010.2
20260506141004 25 0 0.0 0.0 0.00 0.00 0.00 1 1010.3
20260506140904 25 0 0.0 0.0 0.00 0.00 0.00 1 1010.5
20260506140804 25 0 0.0 0.0 0.00 0.00 0.00 1 1010.5
20260506140725 25 0 0.0 0.0 0.00 0.00 0.00 1 1010.6
20260506140603 25 0 0.0 0.0 0.00 0.00 0.00 1 1010.7
20260506140524 25 0 0.0 0.0 0.00 0.00 0.00 1 1010.7
20260506140404 25 0 0.0 0.0 0.00 0.00 0.00 1 1010.6
20260506140304 25 0 0.0 0.0 0.00 0.00 0.00 1 1010.6
20260506140203 25 78 0.0 1.6 0.00 0.00 0.00 1 1010.7
20260506140104 25 77 0.0 1.6 0.00 0.00 0.00 1 1010.6
20260506140004 25 77 0.0 1.6 0.00 0.00 0.00 1 1010.6
20260506135904 25 77 0.0 1.6 0.00 0.00 0.00 1 1010.5
20260506135803 25 77 0.0 1.6 0.00 0.00 0.00 1 1010.4
20260506135724 25 77 0.0 1.6 0.00 0.00 0.00 1 1010.4
20260506135604 25 77 0.0 1.6 0.00 0.00 0.00 1 1010.3
20260506135504 25 77 0.0 1.6 0.00 0.00 0.00 1 1010.3
20260506135404 25 77 0.0 1.6 0.00 0.00 0.00 1 1010.2
20260506135306 25 77 0.0 1.6 0.00 0.00 0.00 1 1010.2
20260506135204 25 77 0.0 1.6 0.00 0.00 0.00 1 1010.2
20260506135104 25 77 0.0 1.6 0.00 0.00 0.00 1 1010.1
20260506135004 25 0 0.0 0.0 0.00 0.00 0.00 1 1010.1
20260506134904 25 0 0.0 0.0 0.00 0.00 0.00 1 1009.9
20260506134804 25 0 0.0 0.0 0.00 0.00 0.00 1 1009.9
20260506134704 25 0 0.0 0.0 0.00 0.00 0.00 1 1009.9
20260506134604 25 0 0.0 0.0 0.00 0.00 0.00 1 1009.9
20260506134525 25 0 0.0 0.0 0.00 0.00 0.00 1 1009.9
20260506134404 25 0 0.0 0.0 0.00 0.00 0.00 1 1009.9
20260506134304 25 0 0.0 0.0 0.00 0.00 0.00 1 1009.9
20260506134224 25 77 0.0 3.2 0.00 0.00 0.00 1 1009.9
20260506134103 25 77 0.0 4.8 0.00 0.00 0.00 1 1009.9
20260506134004 25 77 1.6 4.8 0.00 0.00 0.00 1 1009.9
20260506133904 25 77 1.6 4.8 0.00 0.00 0.00 1 1009.9
20260506133804 25 77 1.6 4.8 0.00 0.00 0.00 1 1009.9
20260506133704 25 77 1.6 4.8 0.00 0.00 0.00 1 1009.9
20260506133624 25 77 1.6 4.8 0.00 0.00 0.00 1 1009.9
20260506133504 25 77 1.6 8.0 0.00 0.00 0.00 1 1009.9
20260506133425 24 77 3.2 8.0 0.00 0.00 0.00 1 1009.9
20260506133304 24 78 3.2 8.0 0.00 0.00 0.00 1 1009.8
20260506133204 24 78 3.2 8.0 0.00 0.00 0.00 1 1009.8
20260506133104 24 78 3.2 8.0 0.00 0.00 0.00 1 1009.9
20260506133003 24 78 1.6 8.0 0.00 0.00 0.00 1 1009.9
20260506132924 24 78 1.6 8.0 0.00 0.00 0.00 1 1009.9
20260506132825 24 78 1.6 8.0 0.00 0.00 0.00 1 1009.8
20260506132704 24 78 1.6 8.0 0.00 0.00 0.00 1 1009.9
20260506132603 24 79 1.6 8.0 0.00 0.00 0.00 1 1009.8
20260506132504 24 80 1.6 4.8 0.00 0.00 0.00 1 1009.8
20260506132404 24 79 0.0 4.8 0.00 0.00 0.00 1 1009.9
20260506132307 24 78 0.0 3.2 0.00 0.00 0.00 1 1009.9
20260506132204 24 75 0.0 3.2 0.00 0.00 0.00 1 1009.9
20260506132104 24 0 0.0 0.0 0.00 0.00 0.00 1 1009.9
20260506132004 24 0 0.0 0.0 0.00 0.00 0.00 1 1009.9
20260506131904 24 0 0.0 0.0 0.00 0.00 0.00 1 1009.8
20260506131804 24 0 0.0 0.0 0.00 0.00 0.00 1 1009.8
20260506131703 24 0 0.0 0.0 0.00 0.00 0.00 1 1009.8
20260506131604 24 0 0.0 0.0 0.00 0.00 0.00 1 1009.8
20260506131504 24 0 0.0 0.0 0.00 0.00 0.00 1 1009.8
20260506131404 24 0 0.0 0.0 0.00 0.00 0.00 1 1009.9
20260506131304 24 0 0.0 0.0 0.00 0.00 0.00 1 1009.8
20260506131204 24 0 0.0 0.0 0.00 0.00 0.00 1 1009.9
20260506131104 24 0 0.0 0.0 0.00 0.00 0.00 1 1009.9
20260506131004 24 62 0.0 1.6 0.00 0.00 0.00 1 1009.9
20260506130904 24 63 0.0 4.8 0.00 0.00 0.00 1 1009.8
20260506130803 24 62 1.6 6.4 0.00 0.00 0.00 1 1009.8
20260506130703 24 63 1.6 6.4 0.00 0.00 0.00 1 1009.7
20260506130604 24 63 1.6 6.4 0.00 0.00 0.00 1 1009.7
20260506130504 24 63 1.6 6.4 0.00 0.00 0.00 1 1009.7
20260506130404 24 63 1.6 6.4 0.00 0.00 0.00 1 1009.7
20260506130303 24 63 1.6 6.4 0.00 0.00 0.00 1 1009.7
20260506130203 24 63 1.6 6.4 0.00 0.00 0.00 1 1009.6
20260506130104 24 63 1.6 6.4 0.00 0.00 0.00 1 1009.6
20260506130004 24 64 3.2 6.4 0.00 0.00 0.00 1 1009.5
20260506125903 24 64 3.2 6.4 0.00 0.00 0.00 1 1009.5
20260506125804 24 64 1.6 6.4 0.00 0.00 0.00 1 1009.5
20260506125704 24 64 1.6 6.4 0.00 0.00 0.00 1 1009.5
20260506125603 24 64 1.6 6.4 0.00 0.00 0.00 1 1009.5
20260506125504 24 64 1.6 6.4 0.00 0.00 0.00 1 1009.5
20260506125425 24 64 1.6 6.4 0.00 0.00 0.00 1 1009.5
20260506125305 24 65 1.6 6.4 0.00 0.00 0.00 1 1009.5
20260506125204 24 65 1.6 6.4 0.00 0.00 0.00 1 1009.5
20260506125104 24 65 1.6 6.4 0.00 0.00 0.00 1 1009.5
20260506125003 24 65 1.6 6.4 0.00 0.00 0.00 1 1009.5
20260506124904 24 65 1.6 3.2 0.00 0.00 0.00 1 1009.6
20260506124825 24 65 1.6 3.2 0.00 0.00 0.00 1 1009.5
20260506124704 24 65 1.6 3.2 0.00 0.00 0.00 1 1009.5
20260506124625 24 65 1.6 6.4 0.00 0.00 0.00 1 1009.5
20260506124504 24 65 1.6 6.4 0.00 0.00 0.00 1 1009.5
20260506124404 24 65 1.6 6.4 0.00 0.00 0.00 1 1009.5
20260506124303 23 66 1.6 6.4 0.00 0.00 0.00 1 1009.5
20260506124203 23 66 1.6 6.4 0.00 0.00 0.00 1 1009.5
20260506124125 23 66 1.6 6.4 0.00 0.00 0.00 1 1009.5
20260506124004 23 66 1.6 6.4 0.00 0.00 0.00 1 1009.5
20260506123904 23 66 1.6 6.4 0.00 0.00 0.00 1 1009.5
20260506123824 23 66 1.6 6.4 0.00 0.00 0.00 1 1009.5
20260506123704 23 66 0.0 6.4 0.00 0.00 0.00 1 1009.5
20260506123604 23 68 0.0 4.8 0.00 0.00 0.00 1 1009.5
20260506123525 23 68 0.0 1.6 0.00 0.00 0.00 1 1009.5
20260506123424 23 0 0.0 0.0 0.00 0.00 0.00 1 1009.5
20260506123304 23 0 0.0 0.0 0.00 0.00 0.00 1 1009.5
20260506123203 23 0 0.0 0.0 0.00 0.00 0.00 1 1009.5
20260506123103 23 0 0.0 0.0 0.00 0.00 0.00 1 1009.5
20260506123004 23 0 0.0 0.0 0.00 0.00 0.00 1 1009.5
20260506122904 23 0 0.0 0.0 0.00 0.00 0.00 1 1009.6
20260506122803 23 0 0.0 0.0 0.00 0.00 0.00 1 1009.6
20260506122725 23 0 0.0 0.0 0.00 0.00 0.00 1 1009.5
20260506122625 23 0 0.0 0.0 0.00 0.00 0.00 1 1009.6
20260506122504 23 68 0.0 4.8 0.00 0.00 0.00 1 1009.5
20260506122403 23 68 0.0 4.8 0.00 0.00 0.00 1 1009.5
20260506122306 23 68 0.0 4.8 0.00 0.00 0.00 1 1009.5
20260506122203 23 68 0.0 4.8 0.00 0.00 0.00 1 1009.5
20260506122104 23 68 0.0 4.8 0.00 0.00 0.00 1 1009.5
20260506122003 23 68 0.0 4.8 0.00 0.00 0.00 1 1009.5
20260506121924 23 68 0.0 4.8 0.00 0.00 0.00 1 1009.5
20260506121803 23 68 0.0 4.8 0.00 0.00 0.00 1 1009.5
20260506121703 23 68 0.0 4.8 0.00 0.00 0.00 1 1009.5
20260506121603 23 68 0.0 4.8 0.00 0.00 0.00 1 1009.5
20260506121525 23 68 0.0 1.6 0.00 0.00 0.00 1 1009.5
20260506121403 23 0 0.0 0.0 0.00 0.00 0.00 1 1009.4
20260506121303 23 0 0.0 0.0 0.00 0.00 0.00 1 1009.4
20260506121204 23 0 0.0 0.0 0.00 0.00 0.00 1 1009.5
20260506121125 23 0 0.0 0.0 0.00 0.00 0.00 1 1009.5
20260506121004 23 0 0.0 0.0 0.00 0.00 0.00 1 1009.4
20260506120903 23 0 0.0 0.0 0.00 0.00 0.00 1 1009.4
20260506120804 23 0 0.0 0.0 0.00 0.00 0.00 1 1009.4
20260506120704 23 0 0.0 0.0 0.00 0.00 0.00 1 1009.4
20260506120603 23 0 0.0 0.0 0.00 0.00 0.00 1 1009.4
20260506120504 23 0 0.0 0.0 0.00 0.00 0.00 1 1009.4
20260506120424 23 0 0.0 0.0 0.00 0.00 0.00 1 1009.4
20260506120303 23 0 0.0 0.0 0.00 0.00 0.00 1 1009.3
20260506120204 23 0 0.0 0.0 0.00 0.00 0.00 1 1009.3
20260506120103 23 0 0.0 0.0 0.00 0.00 0.00 1 1009.3
20260506120004 23 0 0.0 0.0 0.00 0.00 0.00 1 1009.3
20260506115925 23 0 0.0 0.0 0.00 0.00 0.00 1 1009.3
20260506115803 23 0 0.0 0.0 0.00 0.00 0.00 1 1009.3
20260506115725 23 0 0.0 0.0 0.00 0.00 0.00 1 1009.3
20260506115603 23 0 0.0 0.0 0.00 0.00 0.00 1 1009.2
20260506115504 23 0 0.0 0.0 0.00 0.00 0.00 1 1009.3
20260506115404 23 0 0.0 0.0 0.00 0.00 0.00 1 1009.3
20260506115306 23 0 0.0 0.0 0.00 0.00 0.00 1 1009.3
20260506115204 23 0 0.0 0.0 0.00 0.00 0.00 1 1009.3
20260506115103 23 0 0.0 0.0 0.00 0.00 0.00 1 1009.3
20260506115025 23 0 0.0 0.0 0.00 0.00 0.00 1 1009.3
20260506114904 24 0 0.0 0.0 0.00 0.00 0.00 1 1009.3
20260506114803 24 0 0.0 0.0 0.00 0.00 0.00 1 1009.2
20260506114704 24 0 0.0 0.0 0.00 0.00 0.00 1 1009.3
20260506114603 24 0 0.0 0.0 0.00 0.00 0.00 1 1009.3
20260506114503 24 0 0.0 0.0 0.00 0.00 0.00 1 1009.3
20260506114403 24 0 0.0 0.0 0.00 0.00 0.00 1 1009.3
20260506114303 24 0 0.0 0.0 0.00 0.00 0.00 1 1009.3
20260506114225 24 0 0.0 0.0 0.00 0.00 0.00 1 1009.4
20260506114103 24 0 0.0 0.0 0.00 0.00 0.00 1 1009.4
20260506114003 24 0 0.0 0.0 0.00 0.00 0.00 1 1009.4
20260506113904 24 0 0.0 0.0 0.00 0.00 0.00 1 1009.4
20260506113804 24 0 0.0 0.0 0.00 0.00 0.00 1 1009.5
20260506113703 24 0 0.0 0.0 0.00 0.00 0.00 1 1009.4
20260506113604 24 0 0.0 0.0 0.00 0.00 0.00 1 1009.4
20260506113503 24 68 0.0 3.2 0.00 0.00 0.00 1 1009.4
20260506113403 24 68 0.0 6.4 0.00 0.00 0.00 1 1009.4
20260506113304 24 68 0.0 6.4 0.00 0.00 0.00 1 1009.4
20260506113204 24 68 0.0 6.4 0.00 0.00 0.00 1 1009.4
20260506113103 24 68 1.6 6.4 0.00 0.00 0.00 1 1009.4
20260506113003 24 68 1.6 6.4 0.00 0.00 0.00 1 1009.4
20260506112903 24 68 1.6 6.4 0.00 0.00 0.00 1 1009.3
20260506112804 24 68 1.6 6.4 0.00 0.00 0.00 1 1009.3
20260506112703 24 68 1.6 6.4 0.00 0.00 0.00 1 1009.2
20260506112603 24 68 1.6 6.4 0.00 0.00 0.00 1 1009.3
20260506112503 24 68 1.6 6.4 0.00 0.00 0.00 1 1009.3
20260506112404 24 68 1.6 6.4 0.00 0.00 0.00 1 1009.3
20260506112324 24 69 1.6 6.4 0.00 0.00 0.00 1 1009.4
20260506112204 24 69 1.6 6.4 0.00 0.00 0.00 1 1009.3
20260506112103 24 69 1.6 6.4 0.00 0.00 0.00 1 1009.3
20260506112003 24 69 1.6 6.4 0.00 0.00 0.00 1 1009.3
20260506111903 24 69 1.6 4.8 0.00 0.00 0.00 1 1009.3
20260506111804 24 69 1.6 4.8 0.00 0.00 0.00 1 1009.3
20260506111703 24 69 1.6 4.8 0.00 0.00 0.00 1 1009.3
20260506111604 24 69 1.6 4.8 0.00 0.00 0.00 1 1009.3
20260506111504 24 69 1.6 4.8 0.00 0.00 0.00 1 1009.3
20260506111404 24 69 1.6 4.8 0.00 0.00 0.00 1 1009.3
20260506111303 24 69 1.6 4.8 0.00 0.00 0.00 1 1009.3
20260506111225 24 69 1.6 4.8 0.00 0.00 0.00 1 1009.3
20260506111103 24 69 1.6 4.8 0.00 0.00 0.00 1 1009.3
20260506111003 24 69 1.6 4.8 0.00 0.00 0.00 1 1009.3
20260506110903 24 70 1.6 4.8 0.00 0.00 0.00 1 1009.3
20260506110804 24 70 1.6 4.8 0.00 0.00 0.00 1 1009.3
20260506110703 24 70 0.0 3.2 0.00 0.00 0.00 1 1009.3
20260506110603 24 70 0.0 3.2 0.00 0.00 0.00 1 1009.3
20260506110503 24 70 0.0 3.2 0.00 0.00 0.00 1 1009.3
20260506110404 24 70 0.0 3.2 0.00 0.00 0.00 1 1009.3
20260506110303 24 0 0.0 0.0 0.00 0.00 0.00 1 1009.3
20260506110203 24 0 0.0 0.0 0.00 0.00 0.00 1 1009.2
20260506110103 24 0 0.0 0.0 0.00 0.00 0.00 1 1009.3
20260506110004 24 0 0.0 0.0 0.00 0.00 0.00 1 1009.4
20260506105903 24 0 0.0 0.0 0.00 0.00 0.00 1 1009.3
20260506105804 24 0 0.0 0.0 0.00 0.00 0.00 1 1009.3
20260506105703 24 0 0.0 0.0 0.00 0.00 0.00 1 1009.3
20260506105604 24 63 0.0 1.6 0.00 0.00 0.00 1 1009.3
20260506105503 24 64 0.0 3.2 0.00 0.00 0.00 1 1009.3
20260506105403 24 64 0.0 3.2 0.00 0.00 0.00 1 1009.2
20260506105305 24 64 0.0 4.8 0.00 0.00 0.00 1 1009.2
20260506105224 24 64 0.0 4.8 0.00 0.00 0.00 1 1009.2
20260506105104 24 64 0.0 4.8 0.00 0.00 0.00 1 1009.2
20260506105003 24 64 1.6 4.8 0.00 0.00 0.00 1 1009.2
20260506104925 24 64 1.6 4.8 0.00 0.00 0.00 1 1009.2
20260506104824 24 64 1.6 6.4 0.00 0.00 0.00 1 1009.2
20260506104725 24 64 1.6 8.0 0.00 0.00 0.00 1 1009.1
20260506104603 24 64 1.6 8.0 0.00 0.00 0.00 1 1009.1
20260506104504 24 64 1.6 8.0 0.00 0.00 0.00 1 1009.1
20260506104424 24 64 1.6 8.0 0.00 0.00 0.00 1 1009.1
20260506104325 24 64 1.6 8.0 0.00 0.00 0.00 1 1009.1
20260506104225 24 65 1.6 8.0 0.00 0.00 0.00 1 1009.1
20260506104103 24 65 1.6 8.0 0.00 0.00 0.00 1 1009.0
20260506104003 24 65 1.6 8.0 0.00 0.00 0.00 1 1009.0
20260506103904 24 64 0.0 8.0 0.00 0.00 0.00 1 1008.9
20260506103804 24 0 0.0 0.0 0.00 0.00 0.00 1 1009.0
20260506103704 24 0 0.0 0.0 0.00 0.00 0.00 1 1009.0
20260506103604 24 63 0.0 8.0 0.00 0.00 0.00 1 1009.0
20260506103504 24 66 1.6 11.3 0.00 0.00 0.00 1 1009.0
20260506103403 24 64 1.6 11.3 0.00 0.00 0.00 1 1009.0
20260506103325 24 63 1.6 11.3 0.00 0.00 0.00 1 1009.0
20260506103203 24 63 1.6 11.3 0.00 0.00 0.00 1 1009.0
20260506103103 24 63 1.6 11.3 0.00 0.00 0.00 1 1009.0
20260506103003 24 63 1.6 11.3 0.00 0.00 0.00 1 1009.0
20260506102925 24 64 3.2 11.3 0.00 0.00 0.00 1 1009.0
20260506102803 24 66 3.2 11.3 0.00 0.00 0.00 1 1009.1
20260506102703 24 66 3.2 11.3 0.00 0.00 0.00 1 1009.1
20260506102625 24 67 3.2 11.3 0.00 0.00 0.00 1 1009.1
20260506102503 24 67 3.2 9.7 0.00 0.00 0.00 1 1009.1
20260506102403 24 62 3.2 9.7 0.00 0.00 0.00 1 1009.1
20260506102305 24 62 3.2 9.7 0.00 0.00 0.00 1 1009.1
20260506102225 24 61 3.2 9.7 0.00 0.00 0.00 1 1009.1
20260506102124 24 61 3.2 9.7 0.00 0.00 0.00 1 1009.1
20260506102024 24 62 3.2 9.7 0.00 0.00 0.00 1 1009.0
20260506101904 24 62 3.2 9.7 0.00 0.00 0.00 1 1009.0
20260506101803 24 62 3.2 9.7 0.00 0.00 0.00 1 1009.0
20260506101703 24 62 3.2 9.7 0.00 0.00 0.00 1 1009.0
20260506101603 24 63 3.2 9.7 0.00 0.00 0.00 1 1009.0
20260506101503 24 62 3.2 9.7 0.00 0.00 0.00 1 1009.0
20260506101424 24 63 3.2 9.7 0.00 0.00 0.00 1 1009.0
20260506101324 24 67 3.2 9.7 0.00 0.00 0.00 1 1008.9
20260506101204 24 64 3.2 9.7 0.00 0.00 0.00 1 1009.0
20260506101103 24 56 3.2 11.3 0.00 0.00 0.00 1 1008.9
20260506101004 24 48 3.2 11.3 0.00 0.00 0.00 1 1008.9
20260506100903 24 37 3.2 11.3 0.00 0.00 0.00 1 1008.9
20260506100804 24 24 3.2 11.3 0.00 0.00 0.00 1 1008.9
20260506100725 24 13 3.2 11.3 0.00 0.00 0.00 1 1008.9
20260506100603 24 357 3.2 11.3 0.00 0.00 0.00 1 1008.9
20260506100503 24 341 1.6 11.3 0.00 0.00 0.00 1 1008.9
20260506100404 24 341 1.6 11.3 0.00 0.00 0.00 1 1008.9
20260506100303 24 341 1.6 11.3 0.00 0.00 0.00 1 1008.9
20260506100225 24 325 1.6 11.3 0.00 0.00 0.00 1 1008.8
20260506100104 24 323 1.6 6.4 0.00 0.00 0.00 1 1008.8
20260506100004 24 322 1.6 6.4 0.00 0.00 0.00 1 1008.8
20260506095903 24 321 0.0 6.4 0.00 0.00 0.00 1 1008.8
20260506095804 24 319 0.0 6.4 0.00 0.00 0.00 1 1008.8
20260506095724 24 329 0.0 6.4 0.00 0.00 0.00 1 1008.8
20260506095604 24 51 0.0 8.0 0.00 0.00 0.00 1 1008.7
20260506095504 24 44 1.6 12.9 0.00 0.00 0.00 1 1008.7
20260506095403 24 44 1.6 12.9 0.00 0.00 0.00 1 1008.8
20260506095305 24 44 1.6 12.9 0.00 0.00 0.00 1 1008.7
20260506095203 24 44 1.6 12.9 0.00 0.00 0.00 1 1008.7
20260506095103 24 44 1.6 12.9 0.00 0.00 0.00 1 1008.7
20260506095003 24 44 1.6 12.9 0.00 0.00 0.00 1 1008.7
20260506094904 24 44 1.6 12.9 0.00 0.00 0.00 1 1008.7
20260506094803 24 44 1.6 12.9 0.00 0.00 0.00 1 1008.7
20260506094704 24 42 1.6 12.9 0.00 0.00 0.00 1 1008.7
20260506094603 24 41 0.0 12.9 0.00 0.00 0.00 1 1008.6
20260506094503 24 0 0.0 0.0 0.00 0.00 0.00 1 1008.7
20260506094424 24 0 0.0 0.0 0.00 0.00 0.00 1 1008.6
20260506094303 24 65 0.0 4.8 0.00 0.00 0.00 1 1008.6
20260506094203 24 62 1.6 6.4 0.00 0.00 0.00 1 1008.6
20260506094103 24 53 1.6 8.0 0.00 0.00 0.00 1 1008.6
20260506094004 24 52 1.6 8.0 0.00 0.00 0.00 1 1008.6
20260506093904 24 51 1.6 8.0 0.00 0.00 0.00 1 1008.6
20260506093825 24 51 1.6 8.0 0.00 0.00 0.00 1 1008.6
20260506093704 24 51 1.6 8.0 0.00 0.00 0.00 1 1008.6
20260506093604 24 53 3.2 8.0 0.00 0.00 0.00 1 1008.6
20260506093504 24 53 3.2 9.7 0.00 0.00 0.00 1 1008.5
20260506093404 24 53 3.2 9.7 0.00 0.00 0.00 1 1008.5
20260506093304 24 52 3.2 9.7 0.00 0.00 0.00 1 1008.5
20260506093203 24 54 3.2 9.7 0.00 0.00 0.00 1 1008.5
20260506093103 24 57 3.2 9.7 0.00 0.00 0.00 1 1008.5
20260506093004 24 58 3.2 9.7 0.00 0.00 0.00 1 1008.5
20260506092924 24 59 3.2 9.7 0.00 0.00 0.00 1 1008.4
20260506092803 24 61 3.2 9.7 0.00 0.00 0.00 1 1008.5
20260506092724 24 61 3.2 9.7 0.00 0.00 0.00 1 1008.5
20260506092603 24 64 3.2 9.7 0.00 0.00 0.00 1 1008.4
20260506092504 24 67 3.2 8.0 0.00 0.00 0.00 1 1008.5
20260506092403 24 69 3.2 8.0 0.00 0.00 0.00 1 1008.5
20260506092324 24 70 3.2 8.0 0.00 0.00 0.00 1 1008.5
20260506092204 24 71 3.2 8.0 0.00 0.00 0.00 1 1008.4
20260506092104 24 70 3.2 8.0 0.00 0.00 0.00 1 1008.5
20260506092024 24 70 3.2 11.3 0.00 0.00 0.00 1 1008.4
20260506091904 24 70 3.2 11.3 0.00 0.00 0.00 1 1008.4
20260506091804 24 70 3.2 11.3 0.00 0.00 0.00 1 1008.4
20260506091704 24 70 3.2 11.3 0.00 0.00 0.00 1 1008.4
20260506091603 24 69 1.6 11.3 0.00 0.00 0.00 1 1008.4
20260506091503 24 49 3.2 11.3 0.00 0.00 0.00 1 1008.3
20260506091404 24 38 3.2 11.3 0.00 0.00 0.00 1 1008.3
20260506091324 24 34 1.6 11.3 0.00 0.00 0.00 1 1008.3
20260506091204 24 26 1.6 11.3 0.00 0.00 0.00 1 1008.2
20260506091103 24 25 3.2 11.3 0.00 0.00 0.00 1 1008.2
20260506091003 24 32 3.2 14.5 0.00 0.00 0.00 1 1008.2
20260506090903 24 35 3.2 14.5 0.00 0.00 0.00 1 1008.1
20260506090803 24 40 4.8 14.5 0.00 0.00 0.00 1 1008.2
20260506090704 24 41 4.8 14.5 0.00 0.00 0.00 1 1008.2
20260506090603 24 43 4.8 14.5 0.00 0.00 0.00 1 1008.2
20260506090503 24 49 4.8 14.5 0.00 0.00 0.00 1 1008.2
20260506090403 24 53 4.8 14.5 0.00 0.00 0.00 1 1008.2
20260506090303 24 54 6.4 14.5 0.00 0.00 0.00 1 1008.1
20260506090204 24 54 6.4 14.5 0.00 0.00 0.00 1 1008.1
20260506090103 24 56 6.4 14.5 0.00 0.00 0.00 1 1008.2
20260506090024 24 56 6.4 14.5 0.00 0.00 0.00 1 1008.2
20260506085903 24 50 6.4 14.5 0.00 0.00 0.00 1 1008.2
20260506085804 24 49 6.4 14.5 0.00 0.00 0.00 1 1008.1
20260506085703 24 50 6.4 14.5 0.00 0.00 0.00 1 1008.1
20260506085603 24 50 6.4 14.5 0.00 0.00 0.00 1 1008.2
20260506085504 24 48 6.4 14.5 0.00 0.00 0.00 1 1008.1
20260506085403 24 50 6.4 14.5 0.00 0.00 0.00 1 1008.1
20260506085306 24 49 8.0 14.5 0.00 0.00 0.00 1 1008.1
20260506085203 24 49 6.4 14.5 0.00 0.00 0.00 1 1008.1
20260506085104 24 46 6.4 14.5 0.00 0.00 0.00 1 1008.1
20260506085003 24 46 6.4 14.5 0.00 0.00 0.00 1 1008.1
20260506084904 24 52 6.4 14.5 0.00 0.00 0.00 1 1008.0
20260506084803 24 52 6.4 14.5 0.00 0.00 0.00 1 1008.0
20260506084703 24 51 6.4 14.5 0.00 0.00 0.00 1 1008.1
20260506084603 24 50 6.4 14.5 0.00 0.00 0.00 1 1008.1
20260506084503 24 51 6.4 16.1 0.00 0.00 0.00 1 1008.1
20260506084403 24 46 6.4 16.1 0.00 0.00 0.00 1 1008.1
20260506084303 24 46 6.4 16.1 0.00 0.00 0.00 1 1008.1
20260506084203 24 46 6.4 16.1 0.00 0.00 0.00 1 1008.1
20260506084103 24 47 6.4 16.1 0.00 0.00 0.00 1 1008.1
20260506084004 24 46 6.4 22.5 0.00 0.00 0.00 1 1008.1
20260506083903 24 46 6.4 22.5 0.00 0.00 0.00 1 1008.1
20260506083804 24 44 6.4 22.5 0.00 0.00 0.00 1 1008.0
20260506083704 24 45 6.4 22.5 0.00 0.00 0.00 1 1008.0
20260506083603 24 43 6.4 22.5 0.00 0.00 0.00 1 1008.1
20260506083503 24 44 6.4 22.5 0.00 0.00 0.00 1 1008.1
20260506083403 24 48 6.4 22.5 0.00 0.00 0.00 1 1008.1
20260506083304 24 49 6.4 22.5 0.00 0.00 0.00 1 1008.1
20260506083203 24 49 6.4 22.5 0.00 0.00 0.00 1 1008.1
20260506083124 24 48 6.4 22.5 0.00 0.00 0.00 1 1008.1
20260506083003 24 49 6.4 16.1 0.00 0.00 0.00 1 1008.1
20260506082903 24 49 6.4 16.1 0.00 0.00 0.00 1 1008.0
20260506082803 24 50 6.4 16.1 0.00 0.00 0.00 1 1008.1
20260506082704 24 50 6.4 16.1 0.00 0.00 0.00 1 1008.1
20260506082603 24 52 6.4 16.1 0.00 0.00 0.00 1 1008.1
20260506082503 24 53 6.4 16.1 0.00 0.00 0.00 1 1008.0
20260506082403 24 54 6.4 14.5 0.00 0.00 0.00 1 1008.0
20260506082305 24 52 6.4 14.5 0.00 0.00 0.00 1 1008.0
20260506082203 24 50 6.4 14.5 0.00 0.00 0.00 1 1008.0
20260506082103 24 49 6.4 14.5 0.00 0.00 0.00 1 1008.0
20260506082004 24 48 6.4 14.5 0.00 0.00 0.00 1 1008.0
20260506081903 24 47 6.4 14.5 0.00 0.00 0.00 1 1008.0
20260506081803 24 45 6.4 14.5 0.00 0.00 0.00 1 1008.0
20260506081703 24 43 6.4 14.5 0.00 0.00 0.00 1 1008.0
20260506081604 24 42 6.4 14.5 0.00 0.00 0.00 1 1008.0
20260506081503 24 41 6.4 14.5 0.00 0.00 0.00 1 1008.1
20260506081403 24 39 6.4 14.5 0.00 0.00 0.00 1 1008.1
20260506081324 24 40 6.4 12.9 0.00 0.00 0.00 1 1008.1
20260506081224 24 40 6.4 12.9 0.00 0.00 0.00 1 1008.1
20260506081104 24 44 6.4 14.5 0.00 0.00 0.00 1 1008.1
20260506081003 24 42 6.4 14.5 0.00 0.00 0.00 1 1008.1
20260506080924 24 41 6.4 14.5 0.00 0.00 0.00 1 1008.0
20260506080804 24 42 6.4 14.5 0.00 0.00 0.00 1 1008.0
20260506080703 24 44 6.4 14.5 0.00 0.00 0.00 1 1008.0
20260506080604 24 44 6.4 14.5 0.00 0.00 0.00 1 1008.0
20260506080503 24 46 6.4 14.5 0.00 0.00 0.00 1 1008.0
20260506080403 24 47 6.4 14.5 0.00 0.00 0.00 1 1008.0
20260506080303 24 45 6.4 17.7 0.00 0.00 0.00 1 1008.1
20260506080225 24 45 6.4 17.7 0.00 0.00 0.00 1 1008.1
20260506080104 24 43 6.4 17.7 0.00 0.00 0.00 1 1008.1
20260506073504 24 46 9.7 19.3 0.00 0.00 0.00 1 1008.1
20260506073403 24 45 9.7 17.7 0.00 0.00 0.00 1 1008.2
20260506073303 24 47 9.7 17.7 0.00 0.00 0.00 1 1008.2
20260506073203 24 44 9.7 17.7 0.00 0.00 0.00 1 1008.2
20260506073124 24 44 9.7 22.5 0.00 0.00 0.00 1 1008.2
20260506073004 24 43 9.7 22.5 0.00 0.00 0.00 1 1008.2
20260506072904 24 38 9.7 22.5 0.00 0.00 0.00 1 1008.2
20260506072803 24 38 11.3 22.5 0.00 0.00 0.00 1 1008.1
20260506072724 24 38 11.3 22.5 0.00 0.00 0.00 1 1008.2
20260506072624 24 37 11.3 22.5 0.00 0.00 0.00 1 1008.2
20260506072504 24 35 9.7 22.5 0.00 0.00 0.00 1 1008.2
20260506072404 24 35 9.7 22.5 0.00 0.00 0.00 1 1008.2
20260506072305 24 33 9.7 22.5 0.00 0.00 0.00 1 1008.3
20260506072204 24 35 9.7 22.5 0.00 0.00 0.00 1 1008.3
20260506072103 24 32 9.7 22.5 0.00 0.00 0.00 1 1008.3
20260506072003 24 29 11.3 24.1 0.00 0.00 0.00 1 1008.2
20260506071904 24 32 9.7 24.1 0.00 0.00 0.00 1 1008.2
20260506071824 24 31 9.7 24.1 0.00 0.00 0.00 1 1008.2
20260506071703 24 28 9.7 24.1 0.00 0.00 0.00 1 1008.2
20260506071625 24 27 11.3 24.1 0.00 0.00 0.00 1 1008.3
20260506071504 24 28 11.3 24.1 0.00 0.00 0.00 1 1008.3
20260506071404 24 28 11.3 24.1 0.00 0.00 0.00 1 1008.3
20260506071303 24 29 11.3 24.1 0.00 0.00 0.00 1 1008.3
20260506071203 24 30 11.3 24.1 0.00 0.00 0.00 1 1008.3
20260506071124 24 31 11.3 24.1 0.00 0.00 0.00 1 1008.3
20260506071004 24 32 9.7 20.9 0.00 0.00 0.00 1 1008.4
20260506070903 24 31 9.7 20.9 0.00 0.00 0.00 1 1008.4
20260506070824 24 32 8.0 20.9 0.00 0.00 0.00 1 1008.4
20260506070703 24 32 8.0 20.9 0.00 0.00 0.00 1 1008.4
20260506070603 24 38 8.0 20.9 0.00 0.00 0.00 1 1008.4
20260506070524 24 37 8.0 22.5 0.00 0.00 0.00 1 1008.4
20260506070403 24 37 6.4 22.5 0.00 0.00 0.00 1 1008.4
20260506070304 24 36 8.0 22.5 0.00 0.00 0.00 1 1008.4
20260506070204 24 36 6.4 22.5 0.00 0.00 0.00 1 1008.4
20260506070103 24 34 6.4 22.5 0.00 0.00 0.00 1 1008.4
20260506062503 25 32 8.0 19.3 0.00 0.00 0.00 1 1008.5
20260506062403 25 33 8.0 19.3 0.00 0.00 0.00 1 1008.4
20260506062305 25 38 8.0 19.3 0.00 0.00 0.00 1 1008.4
20260506062203 25 35 8.0 19.3 0.00 0.00 0.00 1 1008.4
20260506062103 25 38 8.0 17.7 0.00 0.00 0.00 1 1008.3
20260506062003 25 36 8.0 17.7 0.00 0.00 0.00 1 1008.3
20260506061903 25 37 8.0 17.7 0.00 0.00 0.00 1 1008.3
20260506061824 25 39 8.0 17.7 0.00 0.00 0.00 1 1008.2
20260506061704 25 42 8.0 20.9 0.00 0.00 0.00 1 1008.2
20260506061603 25 38 9.7 20.9 0.00 0.00 0.00 1 1008.2
20260506061503 25 41 9.7 20.9 0.00 0.00 0.00 1 1008.2
20260506061403 25 38 8.0 20.9 0.00 0.00 0.00 1 1008.2
20260506061303 25 36 8.0 20.9 0.00 0.00 0.00 1 1008.3
20260506061203 25 33 8.0 20.9 0.00 0.00 0.00 1 1008.3
20260506061103 25 27 6.4 20.9 0.00 0.00 0.00 1 1008.3
20260506061003 25 22 6.4 20.9 0.00 0.00 0.00 1 1008.3
20260506060903 25 15 6.4 20.9 0.00 0.00 0.00 1 1008.3
20260506060803 25 5 6.4 20.9 0.00 0.00 0.00 1 1008.4
20260506060724 25 4 6.4 20.9 0.00 0.00 0.00 1 1008.3
20260506060603 25 7 4.8 16.1 0.00 0.00 0.00 1 1008.4
20260506060504 25 358 4.8 17.7 0.00 0.00 0.00 1 1008.4
20260506060403 25 3 6.4 17.7 0.00 0.00 0.00 1 1008.4
20260506060303 25 10 6.4 17.7 0.00 0.00 0.00 1 1008.4
20260506060203 25 16 6.4 19.3 0.00 0.00 0.00 1 1008.5
20260506051404 25 34 6.4 17.7 0.00 0.00 0.00 1 1008.4
20260506051324 25 34 6.4 17.7 0.00 0.00 0.00 1 1008.4
20260506051203 25 35 8.0 17.7 0.00 0.00 0.00 1 1008.4
20260506051103 25 32 6.4 17.7 0.00 0.00 0.00 1 1008.4
20260506051003 25 38 6.4 16.1 0.00 0.00 0.00 1 1008.5
20260506050903 25 40 6.4 16.1 0.00 0.00 0.00 1 1008.4
20260506050824 25 43 6.4 16.1 0.00 0.00 0.00 1 1008.5
20260506050704 25 41 6.4 16.1 0.00 0.00 0.00 1 1008.5
20260506050605 25 34 6.4 16.1 0.00 0.00 0.00 1 1008.5
20260506050503 25 26 6.4 16.1 0.00 0.00 0.00 1 1008.6
20260506050404 25 23 6.4 16.1 0.00 0.00 0.00 1 1008.5
20260506050304 25 20 6.4 16.1 0.00 0.00 0.00 1 1008.6
20260506050203 25 18 4.8 16.1 0.00 0.00 0.00 1 1008.6
20260506050103 25 18 4.8 16.1 0.00 0.00 0.00 1 1008.6
20260506045104 25 2 6.4 16.1 0.00 0.00 0.00 1 1008.5
20260506045024 25 356 6.4 16.1 0.00 0.00 0.00 1 1008.5
20260506044903 25 351 4.8 16.1 0.00 0.00 0.00 1 1008.5
20260506044803 25 346 4.8 16.1 0.00 0.00 0.00 1 1008.5
20260506044703 25 347 4.8 16.1 0.00 0.00 0.00 1 1008.4
20260506044603 25 354 3.2 16.1 0.00 0.00 0.00 1 1008.5
20260506044504 25 348 4.8 16.1 0.00 0.00 0.00 1 1008.5
20260506044404 25 341 4.8 16.1 0.00 0.00 0.00 1 1008.5
20260506044303 25 341 4.8 16.1 0.00 0.00 0.00 1 1008.5
20260506044203 25 350 4.8 16.1 0.00 0.00 0.00 1 1008.5
20260506044103 25 360 4.8 11.3 0.00 0.00 0.00 1 1008.6
20260506044003 25 6 3.2 11.3 0.00 0.00 0.00 1 1008.6
20260506043924 25 13 4.8 11.3 0.00 0.00 0.00 1 1008.6
20260506043803 25 22 4.8 11.3 0.00 0.00 0.00 1 1008.6
20260506043703 25 10 4.8 11.3 0.00 0.00 0.00 1 1008.6
20260506043603 25 4 4.8 11.3 0.00 0.00 0.00 1 1008.6
20260506043524 25 9 4.8 11.3 0.00 0.00 0.00 1 1008.6
20260506043404 25 31 4.8 11.3 0.00 0.00 0.00 1 1008.6
20260506043303 25 35 4.8 11.3 0.00 0.00 0.00 1 1008.6
20260506043203 25 39 4.8 11.3 0.00 0.00 0.00 1 1008.6
20260506043103 25 37 4.8 11.3 0.00 0.00 0.00 1 1008.6
20260506043003 25 37 4.8 11.3 0.00 0.00 0.00 1 1008.5
20260506042903 25 34 4.8 11.3 0.00 0.00 0.00 1 1008.5
20260506042803 25 39 4.8 9.7 0.00 0.00 0.00 1 1008.5
20260506042703 25 49 4.8 9.7 0.00 0.00 0.00 1 1008.4
20260506042604 25 53 3.2 9.7 0.00 0.00 0.00 1 1008.4
20260506042503 25 54 3.2 9.7 0.00 0.00 0.00 1 1008.4
20260506042403 25 52 3.2 9.7 0.00 0.00 0.00 1 1008.4
20260506042305 25 54 3.2 9.7 0.00 0.00 0.00 1 1008.4
20260506042203 25 52 1.6 9.7 0.00 0.00 0.00 1 1008.4
20260506042103 25 50 1.6 9.7 0.00 0.00 0.00 1 1008.4
20260506042024 25 43 3.2 9.7 0.00 0.00 0.00 1 1008.4
20260506041903 25 37 3.2 12.9 0.00 0.00 0.00 1 1008.4
20260506041824 25 39 3.2 12.9 0.00 0.00 0.00 1 1008.4
20260506041703 25 28 3.2 12.9 0.00 0.00 0.00 1 1008.4
20260506041603 25 31 4.8 12.9 0.00 0.00 0.00 1 1008.4
20260506041504 25 36 4.8 12.9 0.00 0.00 0.00 1 1008.4
20260506041403 25 31 4.8 17.7 0.00 0.00 0.00 1 1008.4
20260506041303 25 31 4.8 17.7 0.00 0.00 0.00 1 1008.3
20260506041203 25 32 6.4 17.7 0.00 0.00 0.00 1 1008.4
20260506041104 25 28 6.4 17.7 0.00 0.00 0.00 1 1008.3
20260506041003 25 29 6.4 17.7 0.00 0.00 0.00 1 1008.3
20260506040903 25 28 6.4 17.7 0.00 0.00 0.00 1 1008.3
20260506040804 25 31 6.4 17.7 0.00 0.00 0.00 1 1008.3
20260506040703 25 38 6.4 17.7 0.00 0.00 0.00 1 1008.3
20260506040603 25 38 6.4 17.7 0.00 0.00 0.00 1 1008.3
20260506040503 25 30 6.4 17.7 0.00 0.00 0.00 1 1008.3
20260506040404 25 32 6.4 14.5 0.00 0.00 0.00 1 1008.2
20260506040303 25 28 6.4 14.5 0.00 0.00 0.00 1 1008.2
20260506040204 25 19 6.4 16.1 0.00 0.00 0.00 1 1008.2
20260506040104 25 16 6.4 16.1 0.00 0.00 0.00 1 1008.2
20260506040024 25 18 6.4 16.1 0.00 0.00 0.00 1 1008.2
20260506035903 25 20 6.4 16.1 0.00 0.00 0.00 1 1008.1
20260506035824 25 19 6.4 16.1 0.00 0.00 0.00 1 1008.0
20260506035724 25 18 6.4 16.1 0.00 0.00 0.00 1 1008.0
20260506035603 25 16 6.4 16.1 0.00 0.00 0.00 1 1008.0
20260506035525 25 17 6.4 16.1 0.00 0.00 0.00 1 1008.0
20260506035424 25 19 6.4 16.1 0.00 0.00 0.00 1 1008.0
20260506035306 25 19 4.8 16.1 0.00 0.00 0.00 1 1007.9
20260506035203 25 28 4.8 16.1 0.00 0.00 0.00 1 1007.9
20260506035104 25 37 3.2 12.9 0.00 0.00 0.00 1 1008.0
20260506035003 25 40 3.2 12.9 0.00 0.00 0.00 1 1007.9
20260506034904 25 34 3.2 12.9 0.00 0.00 0.00 1 1008.0
20260506034803 25 31 3.2 12.9 0.00 0.00 0.00 1 1008.0
20260506034724 25 24 3.2 12.9 0.00 0.00 0.00 1 1008.1
20260506034603 25 17 3.2 12.9 0.00 0.00 0.00 1 1008.0
20260506034503 25 23 3.2 14.5 0.00 0.00 0.00 1 1008.0
20260506034403 25 12 3.2 14.5 0.00 0.00 0.00 1 1008.0
20260506034303 25 12 3.2 14.5 0.00 0.00 0.00 1 1008.0
20260506034203 25 12 3.2 14.5 0.00 0.00 0.00 1 1008.0
20260506034103 25 7 3.2 14.5 0.00 0.00 0.00 1 1008.0
20260506034003 25 358 4.8 14.5 0.00 0.00 0.00 1 1008.0
20260506033903 25 4 4.8 14.5 0.00 0.00 0.00 1 1007.9
20260506033803 25 359 3.2 14.5 0.00 0.00 0.00 1 1007.9
20260506033704 25 360 3.2 14.5 0.00 0.00 0.00 1 1007.9
20260506033603 25 352 3.2 14.5 0.00 0.00 0.00 1 1007.8
20260506033524 25 343 1.6 14.5 0.00 0.00 0.00 1 1007.8
20260506033403 25 342 1.6 12.9 0.00 0.00 0.00 1 1007.8
20260506033303 25 342 1.6 12.9 0.00 0.00 0.00 1 1007.8
20260506033224 25 342 1.6 12.9 0.00 0.00 0.00 1 1007.8
20260506033103 25 330 1.6 12.9 0.00 0.00 0.00 1 1007.8
20260506033004 25 317 1.6 12.9 0.00 0.00 0.00 1 1007.8
20260506032903 25 290 1.6 11.3 0.00 0.00 0.00 1 1007.8
20260506032803 25 292 1.6 11.3 0.00 0.00 0.00 1 1007.8
20260506032703 25 304 1.6 11.3 0.00 0.00 0.00 1 1007.8
20260506032603 25 317 3.2 11.3 0.00 0.00 0.00 1 1007.8
20260506032503 25 317 3.2 11.3 0.00 0.00 0.00 1 1007.8
20260506032403 25 333 4.8 11.3 0.00 0.00 0.00 1 1007.8
20260506032324 25 334 4.8 11.3 0.00 0.00 0.00 1 1007.8
20260506032203 25 342 4.8 11.3 0.00 0.00 0.00 1 1007.8
20260506032124 25 346 3.2 11.3 0.00 0.00 0.00 1 1007.7
20260506032003 25 6 4.8 11.3 0.00 0.00 0.00 1 1007.7
20260506031904 25 16 4.8 11.3 0.00 0.00 0.00 1 1007.7
20260506031824 25 18 4.8 12.9 0.00 0.00 0.00 1 1007.6
20260506031703 25 13 4.8 14.5 0.00 0.00 0.00 1 1007.5
20260506031603 25 15 4.8 14.5 0.00 0.00 0.00 1 1007.5
20260506031504 25 26 4.8 14.5 0.00 0.00 0.00 1 1007.6
20260506031403 25 27 4.8 14.5 0.00 0.00 0.00 1 1007.6
20260506031303 25 33 4.8 14.5 0.00 0.00 0.00 1 1007.5
20260506031203 25 30 4.8 14.5 0.00 0.00 0.00 1 1007.5
20260506031124 25 25 6.4 14.5 0.00 0.00 0.00 1 1007.6
20260506031003 25 24 6.4 14.5 0.00 0.00 0.00 1 1007.6
20260506030903 25 25 6.4 14.5 0.00 0.00 0.00 1 1007.6
20260506030805 25 31 4.8 14.5 0.00 0.00 0.00 1 1007.6
20260506030703 25 35 4.8 14.5 0.00 0.00 0.00 1 1007.6
20260506030604 25 27 6.4 14.5 0.00 0.00 0.00 1 1007.6
20260506030503 25 11 6.4 14.5 0.00 0.00 0.00 1 1007.6
20260506030403 25 360 4.8 14.5 0.00 0.00 0.00 1 1007.6
20260506030324 25 351 6.4 14.5 0.00 0.00 0.00 1 1007.6
20260506030203 25 344 6.4 14.5 0.00 0.00 0.00 1 1007.5
20260506030103 25 351 6.4 14.5 0.00 0.00 0.00 1 1007.5
20260506030003 25 342 6.4 14.5 0.00 0.00 0.00 1 1007.5
20260506025903 25 339 6.4 16.1 0.00 0.00 0.00 1 1007.5
20260506025824 25 334 6.4 16.1 0.00 0.00 0.00 1 1007.5
20260506025703 25 329 6.4 16.1 0.00 0.00 0.00 1 1007.5
20260506025603 25 331 6.4 16.1 0.00 0.00 0.00 1 1007.5
20260506025525 25 335 6.4 16.1 0.00 0.00 0.00 1 1007.4
20260506025403 25 345 6.4 16.1 0.00 0.00 0.00 1 1007.4
20260506025324 25 348 6.4 16.1 0.00 0.00 0.00 1 1007.4
20260506025224 25 351 6.4 16.1 0.00 0.00 0.00 1 1007.3
20260506025103 26 353 6.4 16.1 0.00 0.00 0.00 1 1007.3
20260506025003 26 357 6.4 16.1 0.00 0.00 0.00 1 1007.2
20260506024903 26 360 8.0 14.5 0.00 0.00 0.00 1 1007.2
20260506024824 26 358 8.0 19.3 0.00 0.00 0.00 1 1007.2
20260506024703 26 356 8.0 19.3 0.00 0.00 0.00 1 1007.3
20260506024603 26 351 8.0 19.3 0.00 0.00 0.00 1 1007.2
20260506024503 26 344 8.0 19.3 0.00 0.00 0.00 1 1007.2
20260506024403 26 341 6.4 19.3 0.00 0.00 0.00 1 1007.1
20260506024303 26 349 6.4 19.3 0.00 0.00 0.00 1 1007.2
20260506024224 26 349 6.4 19.3 0.00 0.00 0.00 1 1007.1
20260506024103 26 352 6.4 19.3 0.00 0.00 0.00 1 1007.1
20260506024003 26 356 6.4 19.3 0.00 0.00 0.00 1 1007.0
20260506023903 26 350 6.4 19.3 0.00 0.00 0.00 1 1007.0
20260506023803 26 355 4.8 14.5 0.00 0.00 0.00 1 1007.0
20260506023704 26 358 4.8 12.9 0.00 0.00 0.00 1 1007.0
20260506023603 26 358 4.8 11.3 0.00 0.00 0.00 1 1007.0
20260506023503 26 2 4.8 11.3 0.00 0.00 0.00 1 1006.9
20260506023403 26 359 4.8 11.3 0.00 0.00 0.00 1 1006.9
20260506023303 26 352 4.8 11.3 0.00 0.00 0.00 1 1006.9
20260506023203 26 349 4.8 11.3 0.00 0.00 0.00 1 1006.9
20260506023103 26 357 4.8 11.3 0.00 0.00 0.00 1 1006.8
20260506023003 26 345 4.8 12.9 0.00 0.00 0.00 1 1006.8
20260506022903 26 350 4.8 12.9 0.00 0.00 0.00 1 1006.8
20260506022824 26 344 4.8 12.9 0.00 0.00 0.00 1 1006.8
20260506022703 26 341 4.8 12.9 0.00 0.00 0.00 1 1006.8
20260506022603 26 345 4.8 12.9 0.00 0.00 0.00 1 1006.7
20260506022503 26 352 4.8 12.9 0.00 0.00 0.00 1 1006.7
20260506022403 26 346 4.8 12.9 0.00 0.00 0.00 1 1006.7
20260506022305 26 339 6.4 14.5 0.00 0.00 0.00 1 1006.7
20260506022203 26 334 6.4 17.7 0.00 0.00 0.00 1 1006.7
20260506022103 26 327 6.4 17.7 0.00 0.00 0.00 1 1006.6
20260506022003 26 325 6.4 17.7 0.00 0.00 0.00 1 1006.6
20260506021903 26 321 6.4 17.7 0.00 0.00 0.00 1 1006.6
20260506021803 26 322 6.4 17.7 0.00 0.00 0.00 1 1006.6
20260506021704 26 322 6.4 17.7 0.00 0.00 0.00 1 1006.6
20260506021625 26 320 6.4 17.7 0.00 0.00 0.00 1 1006.5
20260506021503 26 314 6.4 17.7 0.00 0.00 0.00 1 1006.5
20260506021403 26 310 6.4 17.7 0.00 0.00 0.00 1 1006.5
20260506021303 26 306 6.4 17.7 0.00 0.00 0.00 1 1006.5
20260506021203 26 301 4.8 12.9 0.00 0.00 0.00 1 1006.4
20260506021103 26 296 4.8 11.3 0.00 0.00 0.00 1 1006.4
20260506021024 26 295 4.8 11.3 0.00 0.00 0.00 1 1006.4
20260506020903 26 289 4.8 9.7 0.00 0.00 0.00 1 1006.3
20260506020803 26 287 4.8 9.7 0.00 0.00 0.00 2 1006.4
20260506020724 26 285 4.8 9.7 0.00 0.00 0.00 2 1006.4
20260506020603 26 282 4.8 8.0 0.00 0.00 0.00 5 1006.4
20260506020524 26 280 3.2 8.0 0.00 0.00 0.00 7 1006.4
20260506020403 26 278 3.2 8.0 0.00 0.00 0.00 9 1006.3
20260506020324 26 278 3.2 11.3 0.00 0.00 0.00 10 1006.3
20260506020224 26 282 3.2 11.3 0.00 0.00 0.00 11 1006.3
20260506020103 26 285 4.8 11.3 0.00 0.00 0.00 13 1006.3
20260506020003 26 285 4.8 11.3 0.00 0.00 0.00 14 1006.4
20260506015924 26 286 4.8 11.3 0.00 0.00 0.00 15 1006.4
20260506015803 26 289 4.8 11.3 0.00 0.00 0.00 16 1006.4
20260506015703 26 293 4.8 11.3 0.00 0.00 0.00 16 1006.4
20260506015603 26 296 4.8 11.3 0.00 0.00 0.00 17 1006.4
20260506015503 26 300 4.8 11.3 0.00 0.00 0.00 18 1006.4
20260506015403 26 301 4.8 11.3 0.00 0.00 0.00 19 1006.4
20260506015305 26 304 4.8 9.7 0.00 0.00 0.00 19 1006.3
20260506015203 27 309 4.8 9.7 0.00 0.00 0.00 20 1006.3
20260506015103 27 317 4.8 9.7 0.00 0.00 0.00 21 1006.3
20260506015003 27 318 4.8 11.3 0.00 0.00 0.00 22 1006.2
20260506014903 27 323 4.8 11.3 0.00 0.00 0.00 22 1006.2
20260506014803 27 323 4.8 11.3 0.00 0.00 0.00 23 1006.2
20260506014703 27 327 4.8 11.3 0.00 0.00 0.00 23 1006.2
20260506014603 27 327 4.8 11.3 0.00 0.00 0.00 24 1006.2
20260506014503 27 329 4.8 11.3 0.00 0.00 0.00 24 1006.2
20260506014403 27 339 4.8 11.3 0.00 0.00 0.00 25 1006.2
20260506014303 27 350 4.8 11.3 0.00 0.00 0.00 25 1006.2
20260506014203 27 340 4.8 11.3 0.00 0.00 0.00 25 1006.2
20260506014103 27 343 6.4 11.3 0.00 0.00 0.00 26 1006.2
20260506014003 27 354 4.8 11.3 0.00 0.00 0.00 26 1006.2
20260506013903 27 5 4.8 11.3 0.00 0.00 0.00 26 1006.2
20260506013803 27 21 4.8 11.3 0.00 0.00 0.00 26 1006.2
20260506013703 27 31 4.8 11.3 0.00 0.00 0.00 27 1006.3
20260506013603 27 40 4.8 11.3 0.00 0.00 0.00 27 1006.3
20260506013504 27 49 4.8 11.3 0.00 0.00 0.00 27 1006.3
20260506013424 27 49 4.8 11.3 0.00 0.00 0.00 28 1006.3
20260506013303 27 50 4.8 11.3 0.00 0.00 0.00 28 1006.3
20260506013224 27 55 4.8 11.3 0.00 0.00 0.00 28 1006.3
20260506013103 27 51 3.2 11.3 0.00 0.00 0.00 29 1006.3
20260506013024 27 50 3.2 8.0 0.00 0.00 0.00 29 1006.3
20260506012903 27 32 3.2 8.0 0.00 0.00 0.00 29 1006.3
20260506012824 27 21 3.2 8.0 0.00 0.00 0.00 30 1006.3
20260506012703 27 357 3.2 8.0 0.00 0.00 0.00 30 1006.3
20260506012624 27 343 3.2 8.0 0.00 0.00 0.00 30 1006.3
20260506012503 27 326 3.2 8.0 0.00 0.00 0.00 31 1006.3
20260506012424 27 326 3.2 8.0 0.00 0.00 0.00 31 1006.2
20260506012307 27 323 3.2 8.0 0.00 0.00 0.00 32 1006.3
20260506012203 27 324 3.2 8.0 0.00 0.00 0.00 32 1006.3
20260506012103 27 329 3.2 8.0 0.00 0.00 0.00 32 1006.3
20260506012024 27 343 3.2 8.0 0.00 0.00 0.00 32 1006.3
20260506011924 27 359 3.2 8.0 0.00 0.00 0.00 33 1006.3
20260506011803 27 26 3.2 8.0 0.00 0.00 0.00 33 1006.3
20260506011703 27 38 3.2 8.0 0.00 0.00 0.00 34 1006.3
20260506011603 27 48 1.6 8.0 0.00 0.00 0.00 34 1006.3
20260506011503 27 53 1.6 6.4 0.00 0.00 0.00 35 1006.3
20260506011403 27 53 1.6 6.4 0.00 0.00 0.00 35 1006.3
20260506011303 27 53 1.6 6.4 0.00 0.00 0.00 35 1006.3
20260506011203 27 54 1.6 6.4 0.00 0.00 0.00 35 1006.3
20260506011103 27 54 1.6 6.4 0.00 0.00 0.00 35 1006.2
20260506011003 27 54 1.6 8.0 0.00 0.00 0.00 35 1006.2
20260506010924 27 54 3.2 8.0 0.00 0.00 0.00 35 1006.3
20260506010824 27 54 3.2 8.0 0.00 0.00 0.00 36 1006.3
20260506010703 27 54 3.2 8.0 0.00 0.00 0.00 36 1006.3
20260506010603 27 54 3.2 8.0 0.00 0.00 0.00 36 1006.2
20260506010503 27 54 3.2 8.0 0.00 0.00 0.00 36 1006.3
20260506010424 27 55 3.2 8.0 0.00 0.00 0.00 37 1006.2
20260506010324 27 55 3.2 8.0 0.00 0.00 0.00 37 1006.2
20260506010203 27 55 3.2 8.0 0.00 0.00 0.00 37 1006.2
20260506010103 27 55 3.2 8.0 0.00 0.00 0.00 37 1006.2
20260506010003 27 55 3.2 8.0 0.00 0.00 0.00 37 1006.2
20260506005903 27 56 3.2 6.4 0.00 0.00 0.00 37 1006.2
20260506005803 27 56 1.6 6.4 0.00 0.00 0.00 38 1006.2
20260506005703 27 56 1.6 4.8 0.00 0.00 0.00 38 1006.2
20260506005603 27 56 3.2 4.8 0.00 0.00 0.00 38 1006.2
20260506005524 27 56 3.2 4.8 0.00 0.00 0.00 38 1006.2
20260506005424 27 55 3.2 4.8 0.00 0.00 0.00 39 1006.2
20260506005305 27 55 3.2 6.4 0.00 0.00 0.00 38 1006.2
20260506005203 27 55 3.2 6.4 0.00 0.00 0.00 39 1006.2
20260506005124 28 55 3.2 6.4 0.00 0.00 0.00 39 1006.2
20260506005003 28 55 3.2 6.4 0.00 0.00 0.00 39 1006.2
20260506004903 28 55 3.2 6.4 0.00 0.00 0.00 39 1006.2
20260506004803 28 55 3.2 6.4 0.00 0.00 0.00 39 1006.2
20260506004703 28 55 1.6 6.4 0.00 0.00 0.00 39 1006.2
20260506004604 28 55 1.6 6.4 0.00 0.00 0.00 39 1006.2
20260506004504 28 55 1.6 6.4 0.00 0.00 0.00 39 1006.2
20260506004403 28 55 1.6 6.4 0.00 0.00 0.00 40 1006.2
20260506004324 28 55 1.6 6.4 0.00 0.00 0.00 39 1006.2
20260506004224 28 55 1.6 6.4 0.00 0.00 0.00 40 1006.2
20260506004103 28 54 1.6 6.4 0.00 0.00 0.00 40 1006.2
20260506004003 28 54 1.6 6.4 0.00 0.00 0.00 40 1006.2
20260506003903 28 54 1.6 9.7 0.00 0.00 0.00 40 1006.1
20260506003803 28 54 1.6 9.7 0.00 0.00 0.00 40 1006.1
20260506003703 28 53 3.2 9.7 0.00 0.00 0.00 40 1006.1
20260506003603 28 53 3.2 9.7 0.00 0.00 0.00 40 1006.1
20260506003503 28 53 3.2 9.7 0.00 0.00 0.00 41 1006.1
20260506003403 28 53 3.2 9.7 0.00 0.00 0.00 41 1006.1
20260506003303 28 53 3.2 9.7 0.00 0.00 0.00 41 1006.1
20260506003203 28 53 3.2 9.7 0.00 0.00 0.00 41 1006.1
20260506003103 28 53 4.8 9.7 0.00 0.00 0.00 41 1006.1
20260506003003 28 53 4.8 9.7 0.00 0.00 0.00 42 1006.1
20260506002903 28 53 3.2 9.7 0.00 0.00 0.00 42 1006.1
20260506002803 28 53 3.2 9.7 0.00 0.00 0.00 42 1006.1
20260506002724 28 52 3.2 9.7 0.00 0.00 0.00 42 1006.1
20260506002603 28 51 3.2 6.4 0.00 0.00 0.00 42 1006.1
20260506002503 28 49 3.2 6.4 0.00 0.00 0.00 42 1006.2
20260506002424 28 47 3.2 9.7 0.00 0.00 0.00 42 1006.2
20260506002305 28 45 3.2 9.7 0.00 0.00 0.00 42 1006.1
20260506002203 28 43 3.2 9.7 0.00 0.00 0.00 42 1006.2
20260506002103 28 42 3.2 9.7 0.00 0.00 0.00 42 1006.2
20260506002003 28 41 3.2 9.7 0.00 0.00 0.00 42 1006.1
20260506001903 28 41 3.2 9.7 0.00 0.00 0.00 43 1006.1
20260506001803 28 40 3.2 9.7 0.00 0.00 0.00 43 1006.1
20260506001724 28 41 4.8 9.7 0.00 0.00 0.00 43 1006.1
20260506001624 28 42 4.8 9.7 0.00 0.00 0.00 43 1006.0
20260506001503 28 42 4.8 9.7 0.00 0.00 0.00 43 1006.0
20260506001403 28 42 4.8 12.9 0.00 0.00 0.00 43 1006.0
20260506001303 28 41 4.8 12.9 0.00 0.00 0.00 43 1006.0
20260506001203 28 42 4.8 12.9 0.00 0.00 0.00 43 1006.0
20260506001103 28 43 4.8 12.9 0.00 0.00 0.00 44 1006.0
20260506001003 28 43 6.4 16.1 0.00 0.00 0.00 43 1006.0
20260506000903 28 43 6.4 16.1 0.00 0.00 0.00 44 1005.9
20260506000803 28 44 6.4 16.1 0.00 0.00 0.00 44 1006.0
20260506000724 28 45 6.4 16.1 0.00 0.00 0.00 44 1006.0
20260506000624 28 44 6.4 16.1 0.00 0.00 0.00 44 1006.0
20260506000503 28 44 6.4 16.1 0.00 0.00 0.00 45 1006.0
20260506000424 28 46 6.4 16.1 0.00 0.00 0.00 45 1005.9
20260506000324 28 48 6.4 16.1 0.00 0.00 0.00 45 1005.9
20260506000205 28 43 6.4 16.1 0.00 0.00 0.00 45 1005.9
20260506000003 28 35 8.0 17.7 0.00 0.00 0.00 44 1005.8
20260505235903 28 33 8.0 17.7 0.00 0.00 0.00 45 1005.9
20260505235803 28 28 8.0 17.7 0.00 0.00 0.00 45 1005.9
20260505235703 28 21 6.4 17.7 0.00 0.00 0.00 45 1005.9
20260505235603 28 13 6.4 17.7 0.00 0.00 0.00 45 1005.9
20260505235503 28 11 6.4 17.7 0.00 0.00 0.00 45 1005.9
20260505235403 28 9 8.0 17.7 0.00 0.00 0.00 45 1005.8
20260505235305 28 11 6.4 17.7 0.00 0.00 0.00 45 1005.8
20260505235203 28 12 6.4 17.7 0.00 0.00 0.00 45 1005.7
20260505235103 28 9 6.4 16.1 0.00 0.00 0.00 45 1005.7
20260505235003 28 6 6.4 16.1 0.00 0.00 0.00 45 1005.7
20260505234924 28 7 6.4 16.1 0.00 0.00 0.00 45 1005.7
20260505234803 28 16 6.4 16.1 0.00 0.00 0.00 45 1005.7
20260505234724 28 21 6.4 16.1 0.00 0.00 0.00 46 1005.7
20260505234603 28 27 6.4 16.1 0.00 0.00 0.00 45 1005.7
20260505234503 28 22 6.4 22.5 0.00 0.00 0.00 45 1005.7
20260505234403 28 17 6.4 22.5 0.00 0.00 0.00 45 1005.7
20260505234303 28 16 6.4 22.5 0.00 0.00 0.00 45 1005.7
20260505234203 28 19 6.4 22.5 0.00 0.00 0.00 46 1005.7
20260505234103 28 25 6.4 22.5 0.00 0.00 0.00 46 1005.7
20260505234003 28 32 6.4 22.5 0.00 0.00 0.00 46 1005.7
20260505233903 28 30 6.4 22.5 0.00 0.00 0.00 46 1005.6
20260505233803 28 27 6.4 22.5 0.00 0.00 0.00 46 1005.6
20260505233703 28 30 6.4 22.5 0.00 0.00 0.00 46 1005.6
20260505233603 28 30 6.4 22.5 0.00 0.00 0.00 45 1005.6
20260505233503 28 36 6.4 20.9 0.00 0.00 0.00 45 1005.6
20260505233424 28 41 8.0 19.3 0.00 0.00 0.00 45 1005.6
20260505233303 28 31 8.0 19.3 0.00 0.00 0.00 46 1005.6
20260505233225 28 30 8.0 19.3 0.00 0.00 0.00 46 1005.6
20260505233103 28 28 9.7 19.3 0.00 0.00 0.00 46 1005.6
20260505233024 28 26 8.0 19.3 0.00 0.00 0.00 46 1005.7
20260505232924 28 24 8.0 19.3 0.00 0.00 0.00 46 1005.7
20260505232803 28 17 8.0 19.3 0.00 0.00 0.00 46 1005.6
20260505232703 28 10 8.0 19.3 0.00 0.00 0.00 46 1005.7
20260505232603 28 4 6.4 19.3 0.00 0.00 0.00 46 1005.7
20260505232503 28 349 6.4 19.3 0.00 0.00 0.00 46 1005.7
20260505232403 28 346 6.4 16.1 0.00 0.00 0.00 46 1005.7
20260505232305 28 356 6.4 16.1 0.00 0.00 0.00 46 1005.7
20260505232203 28 351 6.4 16.1 0.00 0.00 0.00 46 1005.6
20260505232103 28 339 6.4 16.1 0.00 0.00 0.00 46 1005.6
20260505232003 28 338 6.4 16.1 0.00 0.00 0.00 46 1005.7
20260505231903 28 340 6.4 19.3 0.00 0.00 0.00 46 1005.7
20260505231803 28 347 8.0 19.3 0.00 0.00 0.00 46 1005.7
20260505231703 28 355 8.0 19.3 0.00 0.00 0.00 46 1005.7
20260505231603 28 358 8.0 19.3 0.00 0.00 0.00 46 1005.7
20260505231503 28 1 8.0 19.3 0.00 0.00 0.00 46 1005.7
20260505231403 28 357 8.0 19.3 0.00 0.00 0.00 46 1005.7
20260505231303 28 351 8.0 19.3 0.00 0.00 0.00 47 1005.7
20260505231203 28 346 8.0 19.3 0.00 0.00 0.00 47 1005.7
20260505231103 28 352 8.0 19.3 0.00 0.00 0.00 47 1005.7
20260505231003 28 349 6.4 19.3 0.00 0.00 0.00 47 1005.7
20260505230903 28 344 6.4 16.1 0.00 0.00 0.00 47 1005.7
20260505230803 28 338 6.4 16.1 0.00 0.00 0.00 47 1005.7
20260505230703 28 336 6.4 16.1 0.00 0.00 0.00 47 1005.7